ECMWFNIL_925_thetae_072.txt.gz
Theta_e
317 317 317 317 317 317 316 317 316 316 316 315 315 315 315 314 314 314 314 314 313 313 313 314 316 319 320 321 321 321 322 320 317 316 317 316 314 311 309 307 306 306
317 317 317 317 317 316 316 316 316 315 315 315 315 314 314 314 313 313 313 312 312 311 311 311 313 316 318 319 319 320 321 319 318 319 319 317 314 310 308 307 306 306
316 316 316 316 316 316 316 315 315 315 315 315 314 314 314 313 313 313 312 312 312 312 312 311 312 314 316 318 319 320 320 318 317 318 318 315 312 310 308 307 307 307
315 316 316 316 316 315 315 315 315 315 314 314 314 313 313 313 312 312 312 313 313 313 313 312 312 314 315 316 318 319 319 319 319 319 316 313 311 310 309 308 307 307
314 315 315 315 315 315 315 315 314 314 314 314 313 313 313 312 312 313 313 313 314 314 314 313 312 312 313 315 316 316 317 317 318 317 315 312 311 309 309 308 307 307
313 314 314 314 314 314 314 314 314 314 313 313 313 312 312 312 312 313 313 314 314 314 313 313 312 311 312 314 314 314 316 316 317 316 313 311 310 310 309 308 307 307
312 313 313 313 313 313 313 313 313 313 313 312 312 312 312 312 312 312 313 313 313 313 313 313 312 311 310 312 312 312 313 314 315 313 312 310 309 309 309 308 307 306
311 311 312 312 313 313 313 313 313 312 312 312 311 311 311 311 311 311 311 312 312 312 312 312 312 310 310 310 311 311 311 312 312 312 311 310 309 309 309 309 307 306
310 311 311 312 312 312 312 312 312 312 311 311 311 311 310 310 311 310 311 311 311 311 311 311 310 309 309 310 310 310 309 310 311 311 310 310 309 309 309 308 307 306
310 310 310 311 311 311 312 312 312 312 311 311 310 310 310 310 310 310 310 310 310 310 310 309 309 309 309 310 310 309 309 309 310 310 310 310 309 309 309 307 306 307
310 310 310 310 310 311 311 311 311 311 310 310 310 310 310 309 310 310 310 310 309 309 309 308 308 309 309 309 309 309 308 308 308 308 309 309 309 308 308 307 307 307
310 309 310 310 310 310 311 311 311 311 310 310 309 309 309 309 309 309 309 309 309 309 309 308 307 308 308 308 308 308 308 307 307 307 307 308 308 307 307 306 306 306
309 309 309 310 310 310 310 310 310 310 310 310 309 309 308 308 309 309 309 309 308 309 308 307 307 307 307 307 307 307 307 307 306 306 306 306 306 305 305 305 305 305
309 310 309 309 309 309 309 310 310 310 310 309 309 308 308 308 308 308 308 308 308 308 308 307 306 305 306 306 306 306 306 306 305 305 305 305 305 304 304 303 303 303
310 310 309 309 309 308 309 309 309 309 309 309 308 308 308 308 307 307 307 307 307 307 306 306 306 305 305 306 305 305 305 305 304 304 304 303 303 302 301 301 301 301
309 309 309 308 308 308 308 308 308 308 308 307 307 307 307 307 307 306 306 306 306 306 305 305 305 305 305 305 305 305 305 304 304 303 302 302 301 300 299 299 299 299
307 308 308 307 307 307 307 307 307 307 306 306 307 306 306 306 305 305 306 305 305 304 304 304 304 304 304 304 305 304 304 303 302 301 300 299 299 298 298 298 298 297
307 306 306 306 306 306 306 306 306 305 305 305 305 305 305 305 304 305 304 304 304 303 303 303 303 303 303 303 304 303 303 302 300 299 299 298 298 297 297 297 296 296
306 305 305 305 305 305 305 304 304 305 305 305 305 305 305 304 304 304 303 303 302 302 302 302 302 302 302 302 302 302 301 300 298 297 297 297 297 297 296 296 295 294
306 305 305 304 304 304 303 303 304 304 304 305 304 304 303 303 303 302 302 302 301 301 301 301 301 301 301 300 300 300 299 297 296 295 295 295 295 295 295 295 294 294
305 304 304 304 303 303 302 303 303 303 303 303 303 303 302 302 302 302 301 301 300 300 300 300 300 300 300 299 299 298 297 295 294 293 293 293 294 294 294 294 293 292
305 303 303 303 302 301 301 302 302 302 302 302 302 301 301 301 301 301 300 299 299 299 298 298 299 300 299 299 298 297 295 293 292 292 292 292 292 292 292 292 292 291
304 303 302 302 301 301 301 301 301 301 301 301 300 300 300 300 299 299 298 298 297 297 297 297 298 299 298 297 296 295 293 291 291 290 290 290 291 291 290 290 289 289
302 301 301 301 301 300 300 301 301 300 300 300 299 299 299 299 298 297 296 296 296 296 296 296 297 297 296 295 294 293 291 290 289 289 289 289 289 288 288 288 288 288
300 300 300 300 300 300 300 300 300 299 299 299 298 298 298 297 296 295 294 294 295 295 295 294 295 294 294 293 292 291 290 289 289 288 288 288 287 286 286 286 286 286
299 299 299 299 299 299 299 299 298 298 298 297 296 296 295 295 294 293 293 293 293 293 293 293 293 292 292 292 291 290 289 289 289 288 287 287 286 285 284 284 285 285

ECMWFNIL_925_thetae_075.txt.gz
Theta_e
317 318 318 318 319 319 319 319 319 318 318 318 318 317 317 317 316 317 316 316 316 317 317 317 317 317 318 318 319 319 320 320 320 319 317 315 312 311 310 308 307 307
314 315 316 316 317 317 318 318 317 317 317 317 317 316 316 316 315 315 315 315 315 315 315 315 316 316 316 317 317 317 317 318 318 318 317 315 314 312 311 309 309 308
313 314 314 315 315 316 316 316 316 317 316 316 316 315 315 315 314 315 314 314 314 314 314 314 314 315 315 315 314 314 314 314 316 317 316 314 313 313 312 311 310 309
312 313 313 314 315 315 315 316 315 316 315 315 315 315 315 314 314 314 313 313 313 313 313 313 313 313 313 312 312 312 311 311 313 315 316 315 314 312 310 310 309 309
311 312 312 313 314 314 315 315 315 315 315 315 315 314 314 314 314 313 313 313 313 313 312 312 312 312 312 312 312 312 311 311 312 313 314 314 314 312 310 310 310 310
311 311 311 311 312 313 313 313 314 314 314 314 314 314 314 314 313 313 313 313 312 312 312 312 312 312 312 313 313 313 312 311 311 312 313 313 313 313 312 312 312 311
311 311 310 311 311 311 312 312 312 313 313 313 313 313 313 313 313 313 312 312 312 312 312 312 312 312 312 313 313 313 312 311 310 310 311 312 312 312 312 312 312 311
310 310 310 310 310 310 310 310 311 311 312 312 312 312 313 312 312 312 312 312 311 311 311 311 312 312 312 313 313 313 312 312 311 309 309 310 310 311 311 311 311 310
309 309 309 310 309 310 310 310 310 310 311 311 311 312 312 312 312 312 312 311 311 311 311 311 311 311 312 312 312 312 312 312 311 309 309 309 309 309 310 310 309 309
309 310 309 309 309 309 310 309 310 310 310 310 310 311 311 311 312 311 311 311 310 310 310 310 310 310 310 311 311 311 311 311 311 309 308 308 308 308 308 308 308 308
310 310 309 309 310 309 310 309 309 309 309 310 310 310 310 311 311 311 311 311 310 310 310 310 310 310 310 310 310 310 310 309 309 308 307 308 308 308 307 307 307 307
310 310 310 310 309 309 309 309 309 309 309 309 309 309 309 310 310 310 310 310 310 310 309 309 310 309 309 310 309 309 309 308 307 307 308 307 307 307 307 306 306 306
310 309 309 309 309 309 309 308 309 308 308 308 308 308 308 309 309 310 310 310 310 310 309 309 309 309 309 309 309 308 308 307 306 307 307 307 306 306 306 306 305 305
308 308 308 308 308 308 308 308 308 308 307 307 307 307 307 308 308 308 309 309 309 309 309 308 308 309 309 308 308 308 307 306 306 306 306 306 306 306 305 305 304 304
306 306 307 307 307 307 307 308 307 307 307 306 306 306 306 307 307 307 307 308 308 308 308 308 308 308 308 308 308 307 307 306 305 305 305 304 304 304 304 304 304 304
304 305 305 305 306 306 306 307 307 307 306 305 305 305 305 305 306 306 306 306 307 307 307 307 307 308 308 308 307 307 307 306 305 304 304 304 303 303 303 303 303 303
302 303 304 304 305 305 305 305 305 305 305 305 305 305 304 305 304 305 305 306 306 306 306 306 306 307 307 307 307 307 306 305 304 304 304 303 303 302 302 302 302 302
302 302 302 303 304 304 304 304 304 303 303 304 304 304 304 304 304 304 305 305 305 305 305 305 305 306 306 306 306 305 305 304 304 303 303 303 302 301 301 301 300 300
302 301 301 301 302 303 303 303 303 303 303 303 303 303 303 303 303 303 303 304 304 304 304 304 304 305 305 305 304 304 304 304 303 302 302 301 301 300 300 299 299 298
300 299 299 300 300 301 301 302 302 302 303 303 302 302 302 302 302 302 303 303 303 303 303 303 303 304 304 303 303 303 303 302 302 301 300 299 299 299 298 298 297 297
298 298 298 299 299 300 300 300 301 301 301 302 302 302 301 301 302 302 302 302 302 302 302 302 302 303 302 302 302 302 302 301 300 298 297 297 297 296 296 296 296 295
297 297 297 297 298 298 299 300 300 300 301 301 300 301 301 300 300 301 301 301 302 301 301 301 301 301 301 301 301 301 300 299 297 296 295 295 295 295 295 294 294 294
296 296 297 297 297 297 297 298 299 299 299 300 299 299 299 300 300 300 301 300 300 300 300 300 300 300 300 300 300 300 299 297 295 294 294 293 293 293 293 292 292 292
296 296 296 296 296 296 297 297 298 298 298 298 299 298 299 299 299 299 300 299 299 299 299 299 299 299 299 299 298 298 297 295 294 293 293 292 291 291 291 291 291 291
295 295 295 295 296 296 296 296 297 297 297 297 298 298 298 298 298 298 298 298 298 298 297 297 297 297 297 297 296 296 295 294 293 292 291 291 290 290 289 289 289 289
295 294 294 294 295 295 295 296 296 296 296 296 297 297 297 297 296 296 296 296 296 296 295 295 295 295 296 295 295 294 294 293 292 291 290 290 289 288 288 287 287 287

ECMWFNIL_925_thetae_078.txt.gz
Theta_e
314 315 317 318 318 319 320 320 320 320 320 319 319 319 319 318 318 318 318 317 317 317 317 317 317 318 319 320 321 322 322 322 322 322 320 320 319 317 315 314 312 311
312 312 312 313 314 315 315 316 316 317 317 317 317 317 317 317 316 316 316 316 316 315 315 315 315 316 316 316 317 317 318 319 319 319 318 317 317 317 315 314 313 312
311 311 311 312 312 312 313 313 314 315 315 315 315 315 316 315 315 315 315 315 315 314 314 314 314 314 314 314 314 314 314 315 315 315 316 315 315 316 315 314 313 312
310 310 310 311 311 311 312 312 312 313 313 314 314 314 314 315 314 314 314 314 314 314 314 314 313 313 313 313 313 313 312 313 313 314 314 314 315 314 314 313 313 313
309 309 309 310 310 310 310 311 311 311 312 312 313 313 313 314 314 314 314 314 313 313 313 313 313 313 313 313 312 312 312 312 312 312 313 312 312 312 311 311 311 311
308 308 308 309 309 309 309 310 310 310 311 311 311 312 312 312 313 313 313 313 313 313 313 313 312 312 312 312 312 312 312 312 311 311 311 311 311 311 311 310 310 311
308 308 308 308 308 308 309 309 309 309 309 309 310 310 310 311 311 311 312 312 312 312 312 312 312 312 312 312 312 312 311 311 311 310 310 310 311 311 311 311 310 310
309 308 308 308 308 308 308 308 308 308 308 308 309 309 309 309 310 310 310 311 311 311 311 311 312 311 311 311 311 311 311 311 310 309 309 309 310 310 310 310 310 309
308 308 307 308 307 307 307 307 308 307 307 307 308 308 308 308 309 309 309 310 310 310 310 311 311 311 311 311 310 310 310 310 310 309 309 309 309 309 309 309 309 308
308 308 307 307 307 307 307 307 307 307 307 307 307 307 307 307 308 308 308 308 309 309 309 310 310 310 310 310 310 310 310 309 309 308 308 308 308 308 309 308 308 307
309 309 308 307 307 307 307 307 307 307 307 307 306 306 307 307 307 307 307 307 307 308 308 309 309 309 309 309 309 309 309 309 308 308 307 307 307 308 308 308 308 307
309 309 308 308 307 307 307 307 307 306 306 307 306 306 306 306 306 306 306 306 306 307 307 307 308 308 308 309 309 309 309 308 308 307 307 307 307 307 308 308 307 306
308 308 307 307 307 307 307 307 307 306 306 306 306 305 305 305 305 305 305 305 305 306 306 306 307 307 307 308 308 308 308 308 307 306 306 306 307 307 308 308 306 305
305 306 306 306 306 306 306 307 306 306 306 306 306 305 305 305 304 304 304 304 304 304 305 305 305 306 306 306 307 307 307 307 306 306 305 306 306 307 307 307 306 305
303 304 304 304 305 305 305 306 305 305 305 305 305 305 305 305 304 304 304 304 304 304 304 304 304 305 305 306 306 307 306 306 305 305 305 305 305 306 305 305 305 304
300 301 301 302 302 302 302 303 303 304 304 304 304 304 304 304 303 303 303 303 304 303 303 303 303 304 304 305 305 306 306 305 304 304 304 304 304 304 304 304 304 303
298 298 298 298 298 298 298 299 300 301 301 302 303 302 302 302 302 302 303 302 303 303 302 302 302 303 303 304 305 305 304 304 303 303 304 304 304 304 304 303 303 303
299 298 298 298 298 297 297 297 297 298 298 299 300 300 300 300 300 301 301 301 301 301 302 302 302 302 302 303 303 303 303 303 302 302 302 303 303 303 303 303 302 302
301 301 301 300 299 299 298 298 297 297 297 297 298 298 298 299 299 299 299 300 300 300 300 301 301 302 302 302 302 302 302 302 301 302 301 302 302 302 302 302 301 301
302 302 302 301 301 300 300 300 299 298 297 297 297 297 297 298 298 298 299 299 299 299 299 300 300 301 301 301 302 301 301 301 300 301 300 300 301 301 300 300 300 300
302 301 301 301 301 300 300 300 299 298 298 298 297 297 297 297 297 298 298 299 298 298 298 299 299 299 300 300 301 301 301 300 300 299 299 299 299 299 299 299 299 299
300 300 300 300 299 299 299 298 297 297 297 296 296 296 296 296 296 297 297 297 298 298 298 298 299 299 298 299 300 300 299 299 299 298 298 298 298 298 298 298 298 297
299 298 298 297 297 296 296 296 296 295 295 295 295 295 295 295 295 296 296 296 296 297 297 297 298 298 298 298 298 298 298 297 297 297 297 296 296 297 297 297 296 296
299 297 296 296 295 295 294 294 294 294 294 294 293 293 294 294 294 295 295 295 295 296 296 296 296 297 297 297 297 297 297 296 296 296 295 295 295 295 295 295 294 294
299 298 296 295 294 294 294 293 293 293 293 293 292 292 292 293 293 293 294 294 294 295 295 295 295 296 296 296 296 296 296 295 295 294 294 294 294 294 294 293 293 292
298 298 296 294 293 293 293 293 293 292 292 292 292 292 291 292 292 292 293 293 293 293 294 294 294 294 295 295 295 295 294 294 293 293 293 293 293 293 293 292 291 291

ECMWFNIL_925_thetae_081.txt.gz
Theta_e
311 312 312 313 313 314 315 315 316 317 317 317 318 318 317 317 317 317 318 317 318 318 317 317 317 317 317 317 317 318 319 320 320 321 321 321 321 320 319 318 317 314
310 310 310 310 310 311 311 312 312 313 313 313 314 314 314 315 315 315 316 316 316 316 316 316 316 316 316 315 315 315 316 317 318 319 319 320 319 319 318 318 317 316
309 309 309 309 309 309 310 310 310 311 311 311 311 312 312 312 313 313 314 314 314 314 315 315 315 315 315 314 315 314 314 314 315 315 316 316 317 317 317 317 317 316
308 308 308 308 308 308 309 309 309 309 309 309 310 310 310 311 311 312 312 313 313 313 313 314 314 314 314 314 314 314 314 314 314 313 313 313 314 314 315 315 315 314
308 308 308 308 308 308 308 308 307 308 308 308 308 308 309 309 309 310 311 311 311 312 312 312 312 313 313 313 313 313 313 313 313 312 311 311 312 312 312 312 312 313
308 307 308 307 307 307 307 307 306 306 306 306 307 307 307 307 308 308 309 309 310 310 310 311 311 311 312 312 312 312 312 312 312 311 310 310 310 310 311 311 311 311
308 308 308 307 307 307 307 306 306 306 306 306 306 306 306 306 307 307 307 307 308 308 309 309 309 310 310 310 311 311 311 311 311 310 309 309 309 309 309 309 310 310
308 308 308 307 307 307 306 306 306 306 306 307 307 306 306 305 305 306 306 306 306 307 307 307 308 308 309 309 309 309 310 310 310 309 308 308 308 308 308 308 308 308
308 308 307 307 307 307 306 306 306 306 306 306 306 306 306 306 305 305 305 305 305 306 306 306 306 307 307 307 308 308 308 308 308 308 307 307 307 307 307 307 307 307
307 307 307 307 307 307 307 306 306 306 306 306 306 306 306 305 305 305 305 304 304 305 305 305 305 305 305 306 306 306 306 306 306 305 305 305 306 306 306 306 306 306
307 307 307 307 307 307 307 307 307 306 306 306 305 305 305 305 305 305 304 304 304 304 304 303 304 304 304 304 304 304 304 304 304 304 304 304 304 305 305 305 305 305
306 306 306 306 306 306 306 306 306 306 306 306 305 305 305 305 305 305 304 304 304 303 303 303 302 302 302 303 303 303 303 303 303 302 302 303 303 303 304 304 304 304
305 305 305 305 305 305 305 305 305 305 305 305 305 305 305 305 305 304 304 304 304 304 303 302 302 302 302 302 302 302 302 302 302 301 301 301 302 302 302 303 303 303
304 304 304 304 304 304 305 305 305 304 304 304 304 304 304 304 304 304 304 304 304 303 303 302 302 302 302 302 301 301 301 301 301 300 300 300 300 301 301 302 302 303
303 303 303 303 303 303 304 304 304 304 304 303 303 303 303 303 303 303 303 303 303 303 303 303 302 302 302 301 301 301 301 300 300 299 299 299 300 300 300 301 301 302
301 302 302 302 302 302 302 302 302 302 302 302 301 301 301 301 301 301 301 301 301 302 302 302 302 302 302 301 300 300 300 300 299 298 298 298 299 299 299 300 301 301
300 300 300 300 300 300 300 300 300 300 300 299 299 299 298 298 298 298 298 298 299 299 299 300 300 301 301 300 300 300 299 299 298 298 297 298 298 298 299 299 300 300
299 299 300 300 300 300 299 299 299 298 298 297 297 297 297 296 296 296 296 296 296 296 297 297 297 298 299 299 299 299 299 299 298 297 297 297 297 298 298 298 299 299
300 300 300 300 300 300 300 300 299 299 298 297 296 296 296 295 295 295 295 295 295 295 295 295 295 296 296 297 298 298 298 298 297 297 297 297 297 297 297 298 298 298
300 300 300 300 300 301 300 301 301 300 300 299 297 297 296 295 295 295 294 294 294 294 294 294 294 295 295 295 296 296 296 296 296 296 296 296 297 297 297 297 297 298
299 300 300 300 300 300 300 300 301 301 301 300 299 298 297 296 295 295 294 294 294 293 294 294 294 294 294 294 295 295 295 294 294 294 295 296 296 296 296 297 297 297
298 299 299 299 299 299 300 300 300 301 301 300 299 299 299 298 297 296 295 295 295 294 294 295 295 294 294 294 294 294 294 293 293 294 294 294 295 295 296 296 296 296
297 297 298 298 298 299 299 299 299 299 299 298 298 298 298 298 297 297 296 296 295 295 293 294 295 295 294 294 294 293 293 292 292 293 293 293 294 295 295 295 295 295
295 296 296 296 297 297 297 297 297 297 297 296 294 294 295 294 294 295 296 295 294 294 293 292 294 294 293 293 293 293 293 292 291 291 292 292 293 293 294 294 294 295
294 294 294 295 295 295 295 296 296 296 296 295 293 292 292 293 292 292 293 294 293 293 293 292 293 294 293 293 293 293 292 291 291 290 291 291 292 292 293 293 293 294
292 293 293 293 294 294 295 295 296 296 296 294 293 292 291 292 292 290 291 292 292 291 292 292 292 292 293 292 292 292 292 291 290 290 290 291 291 291 292 292 292 292

ECMWFNIL_925_thetae_084.txt.gz
Theta_e
311 311 311 311 311 311 311 312 312 313 313 313 314 315 315 315 315 315 315 315 316 316 316 317 317 318 318 318 318 319 319 319 320 320 321 321 321 320 320 319 318 317
309 309 309 309 309 309 309 309 310 310 310 310 310 311 311 311 311 312 312 313 313 314 314 315 315 316 316 316 317 317 317 317 317 318 318 318 319 319 319 319 319 318
308 308 308 308 308 308 308 308 308 308 308 308 308 308 308 309 309 309 310 310 311 311 312 313 313 314 314 314 315 315 315 315 316 316 316 316 316 317 317 318 318 318
308 308 308 308 307 308 308 308 307 307 307 307 307 307 307 308 308 308 308 308 309 309 310 310 311 311 312 312 313 313 313 313 314 314 314 314 314 315 315 315 316 316
307 307 307 307 307 307 307 307 307 307 307 307 307 306 307 307 307 307 307 307 307 308 308 309 309 309 310 310 310 311 311 311 311 312 312 312 312 312 312 313 313 313
307 307 307 306 306 306 306 306 307 306 306 306 306 306 306 306 306 306 306 306 306 306 306 307 307 307 308 308 308 309 309 309 310 310 310 310 310 310 310 311 311 311
306 306 307 306 306 306 306 306 306 306 306 306 306 305 305 305 305 305 305 305 305 305 305 305 306 306 306 306 306 307 307 307 308 308 308 308 308 308 309 309 309 309
306 306 306 306 306 306 306 306 306 306 306 306 306 305 305 305 305 304 304 304 304 304 304 304 304 304 304 304 305 305 305 305 305 305 305 306 306 306 307 307 308 308
306 306 306 305 305 305 306 306 305 305 306 306 305 305 305 305 304 304 304 304 303 303 303 303 303 303 303 303 303 303 303 303 303 303 303 304 304 304 305 305 306 306
305 305 305 305 305 305 305 305 305 305 305 305 305 305 305 305 304 304 304 304 303 303 303 302 302 302 302 302 302 302 302 302 302 302 302 302 303 303 303 303 304 304
304 304 304 304 304 304 304 304 304 304 304 304 304 304 304 304 304 303 303 303 303 303 302 302 302 302 301 301 301 301 301 301 301 301 301 301 301 302 302 302 302 302
303 303 303 303 302 303 303 303 303 303 303 303 303 303 303 303 303 303 302 302 302 302 302 302 302 302 301 301 300 300 300 300 300 300 300 300 299 300 300 300 300 301
301 301 301 301 301 301 301 301 301 301 301 301 301 301 301 301 302 302 301 301 301 301 301 301 301 301 301 300 300 299 299 298 298 299 298 298 298 298 298 298 299 299
300 300 300 300 300 300 300 300 300 300 300 300 300 300 300 300 300 300 300 300 300 300 300 300 300 300 300 300 299 299 298 297 297 297 297 297 297 297 297 297 297 298
299 299 299 299 299 298 299 299 299 299 299 299 299 299 299 299 299 299 298 298 298 298 298 298 298 299 299 298 298 298 298 297 297 297 297 297 297 297 296 296 297 297
298 298 298 298 297 297 297 297 297 298 298 298 299 299 299 299 299 299 298 298 298 297 297 297 297 297 297 297 297 297 297 297 297 296 296 296 296 296 296 296 296 296
297 296 296 296 296 296 296 297 297 297 298 298 298 298 298 298 298 299 298 298 298 297 297 297 297 297 297 296 296 296 296 296 296 296 296 296 295 295 295 296 296 296
295 295 295 295 295 295 295 295 296 296 296 297 297 298 298 298 298 298 298 298 298 297 297 296 297 297 296 296 295 295 295 295 294 295 295 295 295 295 295 295 295 295
293 293 293 293 293 294 294 294 294 294 295 295 296 297 297 297 298 298 298 298 298 298 297 297 298 298 297 296 295 294 294 294 293 293 293 294 294 294 294 294 294 295
292 292 292 292 292 292 292 292 292 293 293 294 294 295 295 296 296 297 297 298 298 298 298 298 299 298 297 297 295 295 294 293 292 292 293 293 293 293 294 294 294 294
291 291 291 291 291 291 291 291 291 292 292 292 293 293 294 294 295 296 296 297 298 298 298 298 299 298 297 296 295 294 294 293 292 292 292 292 292 292 293 293 293 294
291 291 291 291 291 291 291 291 291 291 291 292 292 292 293 293 294 294 295 296 296 296 296 297 298 298 297 296 294 293 293 292 291 291 291 291 291 292 292 292 293 293
290 290 290 290 290 290 291 291 291 291 291 291 291 292 292 292 293 293 294 294 295 295 295 295 297 297 296 296 294 293 292 292 291 290 290 290 291 291 291 291 292 292
290 290 290 290 290 290 290 290 290 291 291 291 291 291 292 292 292 292 293 293 294 295 294 294 296 297 296 296 295 293 292 292 291 290 289 290 290 290 291 291 291 291
289 289 289 289 289 289 290 290 290 290 290 290 291 291 291 292 292 292 292 292 293 294 295 294 295 297 297 296 295 293 291 291 290 289 289 289 290 290 290 291 291 291
289 289 289 289 289 289 289 289 289 290 290 290 290 290 291 291 291 291 292 292 292 293 294 294 295 296 297 296 294 293 292 290 289 289 288 289 289 289 290 290 290 290

ECMWFNIL_925_thetae_087.txt.gz
Theta_e
311 312 312 312 313 313 312 313 313 314 314 315 316 316 316 316 315 313 313 313 314 314 315 316 316 316 316 316 317 317 317 318 318 319 319 320 320 321 321 321 320 319
309 309 309 310 312 311 310 310 310 310 311 312 312 312 312 311 310 309 308 309 310 310 311 313 314 314 315 315 315 315 315 316 316 317 317 317 318 318 318 318 318 318
308 308 308 308 309 309 308 308 308 308 308 308 308 308 308 308 307 307 307 307 307 308 308 309 310 311 312 313 313 313 314 314 314 315 315 315 316 316 316 316 316 316
308 308 308 308 308 308 307 307 307 306 306 306 306 306 306 306 306 306 307 306 306 306 306 306 307 308 309 309 311 312 312 312 312 312 313 313 313 313 314 314 314 314
307 307 307 307 307 307 307 306 306 306 306 306 306 306 305 305 306 306 306 306 306 306 305 305 306 306 306 307 308 309 309 310 309 310 310 310 310 311 311 311 311 311
307 307 307 307 307 306 306 306 306 305 306 305 305 305 305 305 305 305 305 305 305 305 305 305 305 304 304 305 305 306 307 307 307 307 307 307 307 308 308 308 309 309
306 306 306 306 305 306 306 305 305 305 305 305 305 304 304 304 304 304 304 304 304 304 304 304 304 304 303 303 303 304 304 305 305 304 304 305 305 305 305 305 306 306
305 305 305 305 305 305 305 305 305 305 305 305 304 304 304 304 304 304 303 303 303 303 303 303 303 302 302 302 302 302 302 302 302 302 302 303 303 303 303 303 304 304
305 305 305 304 304 304 304 304 304 304 304 303 303 303 303 303 303 303 303 303 303 302 302 302 302 302 301 301 301 301 301 301 300 301 301 301 302 302 302 302 302 303
304 303 303 302 302 302 302 302 301 301 301 301 301 301 301 302 301 301 301 302 302 302 302 301 301 301 301 301 300 300 300 300 300 300 300 300 300 301 301 301 301 301
301 301 300 300 300 300 300 300 300 299 299 299 299 299 299 299 299 300 300 300 300 300 300 300 300 300 300 300 300 300 299 299 299 299 299 299 299 300 300 299 300 300
300 299 299 299 298 298 298 298 298 298 297 297 297 297 297 298 298 298 298 298 298 298 299 299 299 299 299 299 299 299 299 298 298 298 298 298 298 298 298 298 298 299
298 298 297 297 296 296 296 296 295 295 295 295 295 296 296 296 296 296 297 297 297 297 297 298 298 298 298 298 298 297 297 297 297 297 297 297 297 297 297 297 297 298
296 295 295 295 294 294 294 294 294 293 294 294 294 294 294 295 295 295 295 295 295 296 296 296 297 297 297 297 297 297 296 296 296 296 296 296 296 296 296 296 296 296
294 294 293 293 293 293 293 293 293 292 292 292 292 292 293 293 293 293 293 294 294 294 295 295 295 296 296 297 297 296 296 295 295 295 295 295 295 295 295 295 295 295
293 293 293 292 292 292 292 292 292 292 292 292 292 292 292 292 292 292 292 293 293 293 293 294 294 294 295 296 297 297 296 295 295 294 294 294 295 295 295 295 295 295
292 292 292 292 291 291 291 291 291 291 291 291 291 291 291 291 291 292 292 292 292 292 292 293 293 293 293 294 295 296 296 296 295 294 294 294 294 294 295 295 294 294
291 291 291 291 291 291 291 291 291 291 291 291 291 291 291 291 291 291 291 291 291 291 292 292 292 292 292 292 293 295 296 296 295 294 294 294 294 294 294 294 294 294
291 290 290 290 290 290 290 290 290 290 290 290 290 290 290 290 290 290 290 290 290 291 291 291 291 291 291 292 292 293 294 295 294 294 294 294 294 294 294 294 294 294
290 290 290 290 290 290 290 290 290 290 289 290 290 290 290 290 290 290 290 290 290 290 290 290 290 290 291 291 291 292 293 294 294 294 293 293 293 293 293 293 293 293
290 290 289 289 289 289 289 289 289 289 289 289 289 289 289 289 289 289 289 289 289 289 289 289 290 290 290 290 291 291 292 293 294 293 293 292 292 292 293 293 293 293
289 289 289 289 289 288 289 289 289 289 289 289 289 289 289 289 289 289 289 289 289 289 289 289 289 289 289 289 290 290 291 292 293 292 291 291 291 292 292 292 292 292
288 288 288 288 288 288 288 289 289 289 289 289 289 289 289 289 289 289 289 289 289 289 289 289 289 289 289 289 289 289 290 291 291 291 290 290 290 291 291 291 291 292
287 287 287 288 288 288 289 289 289 289 289 289 289 289 289 289 289 290 290 290 289 289 289 289 289 290 290 289 289 289 289 289 290 289 289 289 290 290 290 291 291 291
287 288 288 288 289 289 289 289 289 289 289 289 289 289 289 289 289 289 289 289 289 290 290 289 290 290 290 290 289 289 289 289 289 289 289 289 290 289 290 290 290 291
288 289 289 289 289 289 289 289 289 289 288 288 288 288 288 288 288 288 288 289 288 289 289 289 289 290 290 290 289 288 289 289 289 288 288 288 289 289 289 289 289 290

ECMWFNIL_925_thetae_090.txt.gz
Theta_e
317 316 316 316 315 315 314 313 314 314 314 314 314 313 313 312 311 310 308 308 308 309 309 309 311 312 313 314 314 313 313 313 313 314 314 314 315 316 316 317 317 317
314 314 314 314 314 313 311 310 310 310 310 310 310 309 309 308 307 306 306 306 306 306 306 306 307 308 309 311 312 312 312 312 312 312 312 312 313 313 313 313 314 314
310 311 311 311 310 309 308 308 307 307 307 307 307 307 306 306 306 306 306 306 305 305 305 305 305 305 306 306 307 308 308 309 310 310 310 310 310 309 310 310 310 311
308 308 308 308 307 307 307 307 307 306 306 306 306 306 305 306 305 305 305 305 305 305 304 304 304 304 304 304 304 305 305 306 306 306 306 306 306 306 306 306 306 307
307 307 307 307 307 306 306 306 306 306 305 305 305 305 305 305 305 304 304 304 304 303 303 303 303 303 303 303 303 303 303 303 303 303 303 303 303 303 303 303 303 303
306 306 306 306 306 306 306 305 305 305 305 305 304 304 304 304 304 303 303 303 302 302 302 302 302 302 302 301 302 301 301 301 301 301 301 301 301 301 301 301 301 301
305 305 305 305 305 305 305 305 304 304 303 303 303 302 302 301 301 301 301 300 300 300 300 300 300 300 300 300 300 300 300 300 300 300 300 300 300 300 300 300 300 300
305 305 304 304 304 304 303 302 301 301 300 300 300 299 299 298 298 298 298 297 297 297 297 298 298 298 299 299 299 299 298 298 299 299 299 299 299 299 298 299 299 299
304 304 303 302 302 301 300 300 299 298 298 297 297 297 296 296 296 295 295 295 295 296 296 296 296 297 297 297 297 297 297 297 297 297 297 297 297 297 297 298 298 298
302 301 300 300 299 298 298 297 297 296 296 295 295 295 295 294 294 294 294 294 294 294 294 294 295 295 295 296 296 296 297 297 297 296 296 296 296 296 296 297 297 297
299 298 298 297 296 296 295 295 294 294 294 294 294 293 293 293 293 293 293 293 292 293 293 293 293 293 293 294 294 295 296 296 296 296 296 296 296 296 296 296 296 296
297 296 295 295 294 294 294 293 293 293 293 293 292 292 292 292 292 292 292 292 292 292 292 292 292 292 293 293 293 293 294 294 294 295 295 295 295 295 295 295 295 295
295 294 294 294 293 293 292 292 292 291 292 292 292 292 291 291 291 291 291 291 291 291 291 291 291 291 292 292 292 292 292 292 293 293 293 294 294 294 294 294 295 295
293 293 293 292 292 292 291 291 291 291 291 291 291 291 291 291 291 291 291 291 291 291 291 291 291 291 291 291 291 291 291 291 291 292 292 292 293 293 293 293 294 294
292 292 292 291 291 291 291 291 291 291 291 291 291 291 291 291 290 290 290 290 290 290 290 290 290 290 290 290 290 290 290 290 291 291 291 291 291 291 292 292 292 293
292 291 291 291 291 291 291 290 290 291 291 291 290 290 290 290 290 290 289 289 289 289 289 289 289 289 289 289 290 290 289 290 290 290 290 290 290 290 290 291 291 292
291 291 290 290 290 290 290 290 290 290 290 290 290 290 290 290 289 290 289 289 289 289 289 289 289 289 289 289 289 289 289 289 289 289 289 289 289 290 290 290 290 291
291 290 290 290 290 290 290 290 290 290 290 290 290 290 290 290 289 290 289 289 289 289 289 289 289 289 289 289 289 289 289 289 289 289 289 289 289 289 289 290 290 290
290 290 289 289 289 289 289 289 289 290 290 290 290 289 289 289 289 289 289 289 289 289 289 289 289 289 289 289 289 289 289 289 289 289 289 289 289 289 289 289 290 290
289 289 289 289 289 289 289 290 290 290 289 289 289 289 289 289 289 289 289 289 289 288 288 289 289 289 288 288 288 288 288 288 288 288 289 289 289 289 289 289 289 289
288 288 289 289 289 289 290 289 289 289 289 289 288 288 288 288 288 288 288 288 288 288 288 288 288 288 288 288 288 288 288 288 288 288 288 288 289 288 289 289 289 289
288 288 289 289 289 289 289 289 289 288 288 288 288 288 288 288 288 288 288 288 288 288 288 288 288 288 287 288 288 287 287 287 288 288 288 288 288 288 288 288 288 289
288 289 289 289 289 289 288 288 288 288 288 288 288 288 288 288 288 288 288 287 287 287 287 287 288 288 287 287 287 287 287 287 287 287 287 288 288 288 288 288 288 288
288 289 289 288 288 288 288 288 288 288 288 288 288 288 288 287 287 287 287 287 287 287 287 287 287 288 287 287 287 287 286 286 286 287 287 287 287 288 288 288 288 288
288 288 288 288 288 288 287 287 287 287 287 287 287 287 287 287 287 287 287 287 287 287 287 287 287 287 287 287 286 286 286 286 286 287 287 287 287 287 287 287 287 288
288 287 287 287 287 287 287 287 287 287 287 287 287 287 287 287 287 286 287 287 287 286 286 286 286 286 287 286 286 285 285 285 286 286 286 287 287 287 287 287 287 287

ECMWFNIL_925_thetae_093.txt.gz
Theta_e
322 322 321 320 319 318 317 316 316 315 315 314 314 313 312 310 308 307 307 306 306 306 306 306 306 306 307 307 308 309 309 308 308 309 308 308 308 307 307 306 306 307
320 319 318 317 315 315 314 314 314 313 312 311 310 308 307 306 306 306 306 306 306 305 305 305 305 304 304 304 304 304 304 304 304 305 304 304 304 303 303 302 302 303
316 316 315 314 313 312 311 311 310 309 308 307 306 305 305 305 305 305 304 304 304 303 303 302 302 302 302 301 301 301 301 301 301 301 301 301 301 300 300 299 299 299
314 313 313 312 310 309 308 308 307 306 306 305 305 305 305 304 303 303 302 302 301 301 300 300 300 299 299 299 299 299 299 299 299 299 298 298 298 297 297 297 296 296
312 311 309 308 307 306 306 306 305 305 305 304 304 303 303 302 301 300 300 299 298 298 298 297 297 297 297 297 297 297 297 297 296 296 295 295 295 295 295 296 295 295
308 307 306 305 305 305 305 305 304 304 303 303 302 301 300 299 298 297 297 296 296 295 295 295 295 295 295 295 295 295 294 294 294 294 294 294 294 294 294 295 295 295
305 304 304 305 305 305 304 303 303 301 300 300 298 297 297 296 295 295 295 294 294 294 294 294 294 293 293 293 293 293 293 292 292 292 293 293 293 293 293 294 294 294
304 304 304 304 303 302 301 300 299 298 297 296 296 295 295 294 294 294 294 294 293 293 293 293 293 292 292 292 292 292 292 292 292 292 292 292 292 292 292 292 293 293
304 304 303 302 300 299 298 297 296 295 295 295 294 294 294 294 294 293 293 293 293 292 292 292 292 291 291 291 291 291 291 291 291 291 291 291 291 291 291 291 291 292
302 301 300 298 297 296 295 295 294 294 294 294 294 293 293 293 293 292 292 292 292 292 292 291 291 291 290 290 290 290 290 290 290 290 290 290 290 290 290 290 290 290
299 298 297 296 295 294 294 294 294 294 293 293 293 293 292 292 292 292 291 291 291 291 291 290 290 290 290 290 290 290 290 290 290 290 290 289 289 289 289 289 289 290
297 296 295 294 294 294 293 293 293 293 293 293 292 292 292 291 291 291 290 290 290 290 290 290 290 290 290 290 289 289 289 289 289 289 289 289 289 289 289 289 289 289
294 294 294 293 293 293 293 293 293 292 292 292 291 291 291 291 290 290 290 290 290 290 290 290 290 289 289 289 289 289 289 289 289 289 289 289 289 289 289 289 289 289
293 293 293 293 293 292 292 292 292 292 291 291 291 290 290 290 290 290 290 290 290 290 289 289 289 289 289 289 289 289 288 288 288 288 288 288 288 288 288 288 288 288
293 292 292 292 292 292 292 291 291 290 290 290 290 290 290 290 290 289 290 290 289 290 289 289 289 289 289 288 288 288 288 288 288 288 288 288 288 288 288 288 288 288
292 292 292 291 291 291 291 290 290 290 290 290 290 290 290 290 289 289 289 289 289 289 289 289 289 288 288 288 288 288 287 287 287 287 287 287 287 288 287 287 287 287
292 291 291 291 291 290 290 290 290 290 290 290 290 289 289 289 289 289 289 289 289 289 289 289 288 288 288 288 287 287 287 287 287 287 287 287 287 287 287 287 287 287
291 291 290 290 290 290 290 290 290 290 290 289 289 289 289 289 289 289 288 288 288 288 288 288 288 288 287 287 287 287 286 286 286 286 286 286 286 287 286 287 287 287
290 290 290 290 290 290 290 290 289 289 289 289 289 288 288 288 288 288 288 288 287 287 287 287 287 287 287 287 287 286 286 286 286 286 286 286 286 286 286 286 286 286
289 289 289 289 290 289 289 289 289 289 288 288 288 288 288 288 288 288 287 287 287 287 287 287 287 287 287 287 287 286 286 286 286 286 286 286 286 286 285 286 285 286
289 289 289 289 289 289 289 289 288 288 288 288 288 288 287 287 287 287 287 287 287 287 287 287 287 287 287 286 286 286 286 285 285 285 285 285 285 285 285 285 285 285
289 289 289 289 289 289 288 288 288 288 288 287 287 287 287 287 287 287 287 287 287 287 287 287 287 287 287 286 285 285 285 285 284 284 284 284 285 284 284 284 284 285
289 289 289 289 288 288 288 288 288 287 287 287 287 287 287 287 287 287 287 287 287 287 287 287 287 286 286 286 285 284 284 284 284 284 284 284 284 284 284 284 284 284
289 289 288 288 288 288 288 287 287 287 287 286 286 286 286 286 286 287 287 287 287 286 286 286 286 286 285 285 285 283 283 283 283 283 283 283 283 283 283 283 284 284
288 288 288 288 288 287 287 287 286 286 286 286 286 286 286 286 286 286 286 286 286 286 286 286 286 285 284 284 284 283 282 282 282 282 282 282 282 283 283 283 284 284
288 288 287 287 287 287 286 286 286 286 286 286 285 285 285 286 286 286 286 286 286 286 286 285 285 285 283 282 282 281 281 281 281 282 282 282 282 283 283 283 283 283

ECMWFNIL_925_thetae_096.txt.gz
Theta_e
326 325 325 324 323 322 322 320 318 317 317 316 315 315 314 311 309 307 306 306 306 306 305 305 305 304 304 304 303 303 303 303 302 302 301 300 299 298 298 297 297 296
324 324 323 322 321 320 319 317 315 314 315 314 312 310 308 306 305 305 305 305 304 303 303 302 302 301 300 300 299 299 299 298 298 297 297 296 295 295 295 295 294 294
322 322 321 320 319 318 317 315 314 313 312 310 308 306 305 304 304 304 303 302 301 301 300 299 298 297 297 296 296 296 295 295 295 294 294 294 293 293 293 293 293 293
320 320 319 318 317 315 314 313 312 310 308 306 305 304 304 303 302 301 300 300 298 297 297 296 295 295 295 294 294 294 293 293 293 292 292 292 292 292 292 291 291 292
319 318 317 315 314 312 311 310 308 306 304 304 303 303 302 301 299 299 297 296 296 295 295 294 294 293 293 293 293 292 292 292 292 291 291 291 291 291 290 290 290 290
316 315 314 313 311 309 308 306 305 304 304 303 302 300 299 298 297 296 295 295 294 294 294 293 293 293 292 292 292 292 291 291 291 291 290 290 290 290 290 290 290 290
313 313 311 310 308 306 305 304 303 303 302 300 299 297 296 295 295 295 294 294 293 293 293 293 292 292 292 292 291 291 291 291 290 290 290 290 290 290 290 289 289 290
311 309 308 306 305 304 303 302 302 300 298 297 296 295 295 295 294 294 293 293 293 293 292 292 292 292 292 291 291 291 290 290 290 290 290 290 289 289 289 289 289 289
307 305 304 304 303 303 302 300 298 297 296 295 295 294 294 294 293 293 293 292 292 292 292 292 291 291 291 291 290 290 290 290 289 289 289 289 289 289 289 289 289 288
303 303 303 302 301 300 298 297 296 295 294 294 294 293 293 293 292 292 292 292 292 292 291 291 291 290 290 290 290 289 289 289 289 289 288 288 288 288 288 288 288 288
302 302 301 300 298 297 295 295 294 294 293 293 293 292 292 292 292 292 292 291 291 291 291 291 290 290 289 289 289 289 288 288 288 288 288 288 288 288 287 287 287 287
300 299 298 297 295 295 294 294 293 293 293 292 292 292 292 292 291 291 291 291 291 291 290 290 289 289 289 288 288 288 288 288 287 287 287 287 287 287 287 287 287 287
298 297 296 295 294 294 293 293 293 292 292 292 292 292 291 291 291 291 291 291 290 290 290 289 289 288 288 288 287 287 287 287 287 287 287 287 287 287 287 287 287 287
296 295 294 294 294 293 293 293 292 292 292 292 291 291 291 291 291 290 290 290 290 290 289 289 288 288 287 287 287 287 287 287 287 287 287 287 287 287 287 287 286 286
294 293 293 293 293 292 292 292 292 291 291 291 291 291 291 290 290 290 290 290 289 289 288 288 287 287 287 287 287 287 287 287 287 286 286 286 286 287 286 286 286 286
293 293 293 292 292 292 292 291 291 291 291 290 290 290 290 290 290 289 290 289 289 289 288 288 287 287 287 286 286 286 286 286 286 286 286 286 286 286 286 286 285 285
292 292 292 292 291 291 291 291 291 290 290 290 290 289 289 289 289 289 289 289 289 288 288 287 287 287 286 286 286 286 286 286 286 286 285 285 285 285 285 285 285 285
292 292 291 291 291 291 290 290 290 290 289 289 289 289 289 289 289 289 289 288 288 288 287 287 287 286 286 286 286 286 285 285 285 285 285 285 284 284 284 284 284 284
291 291 291 290 290 290 290 290 289 289 289 289 289 289 289 289 289 288 288 288 288 287 287 287 286 286 286 286 285 285 285 285 285 285 285 284 284 284 283 283 283 283
291 290 290 290 290 290 290 289 289 289 289 289 289 289 289 288 288 288 287 287 287 287 287 286 286 286 285 285 285 285 285 285 285 285 284 284 283 283 283 282 282 282
290 290 290 290 289 289 289 289 289 289 289 288 288 288 288 288 287 287 287 287 287 286 286 286 285 285 285 284 284 284 284 284 284 284 284 283 283 282 282 282 282 282
290 290 290 289 289 289 289 288 288 288 288 288 288 288 288 287 287 287 287 286 286 286 286 285 285 284 284 284 284 284 284 284 284 284 283 283 282 282 281 281 281 281
289 289 289 289 289 288 288 288 288 288 288 288 287 287 287 287 287 286 286 286 286 285 285 285 284 284 283 283 283 283 283 283 283 283 283 282 282 281 281 281 281 281
289 289 289 289 288 288 288 288 288 288 287 287 287 287 287 287 286 286 286 286 285 285 284 284 283 283 283 283 283 282 282 282 282 281 281 281 281 281 281 280 280 280
289 289 288 288 288 288 288 288 287 287 287 287 287 287 286 286 286 285 285 285 284 283 283 282 282 282 282 282 282 281 281 281 280 280 280 280 280 281 280 280 279 279
289 288 288 288 288 288 287 287 287 287 287 287 286 286 286 286 285 285 285 284 283 282 281 281 282 282 282 281 281 280 280 279 279 279 279 279 279 279 279 279 278 278

ECMWFNIL_925_thetae_099.txt.gz
Theta_e
331 330 329 328 327 326 326 325 324 323 321 320 320 319 318 316 314 312 309 307 306 306 305 305 304 303 303 302 301 300 299 298 297 297 296 295 294 294 293 293 292 292
329 329 328 327 326 325 324 324 324 322 320 319 319 317 315 313 310 307 306 306 305 304 303 302 301 300 299 298 298 297 296 295 295 294 293 293 293 292 292 292 291 291
328 328 327 326 325 324 323 323 322 320 318 318 317 314 311 308 306 305 305 304 303 301 300 299 298 297 296 295 295 294 294 293 293 292 292 292 292 291 291 291 291 290
326 326 326 325 325 324 323 322 319 317 316 315 313 310 307 305 304 304 303 301 300 298 297 296 295 295 294 294 293 293 293 292 292 291 291 291 291 291 291 290 290 290
325 324 324 323 323 322 321 319 316 314 313 311 308 306 304 303 303 301 300 298 297 296 295 294 294 293 293 293 292 292 292 291 291 291 291 291 290 290 290 290 290 289
323 323 322 321 320 319 317 315 313 312 310 307 305 304 303 301 300 298 297 296 295 294 294 293 293 292 292 292 292 292 291 291 291 290 290 290 290 289 289 289 289 289
321 320 320 319 317 316 314 313 311 308 306 304 303 302 300 299 297 296 295 294 294 293 293 292 292 292 292 291 291 291 291 291 290 290 290 290 289 289 289 288 288 288
319 318 317 316 314 313 312 310 307 305 303 302 301 299 298 296 295 294 294 293 293 292 292 292 292 291 291 291 291 291 291 290 290 290 289 289 289 288 288 288 288 287
317 316 315 314 312 311 309 306 304 303 302 300 298 296 295 294 294 293 293 292 292 292 292 291 291 291 291 291 290 290 290 290 289 289 289 288 288 288 288 287 287 287
314 313 312 311 310 308 306 304 302 301 299 297 295 294 294 293 293 292 292 292 292 292 291 291 291 291 290 290 290 289 289 289 288 288 288 288 287 287 287 287 287 287
312 311 310 309 307 305 303 302 300 298 296 295 294 293 293 292 292 292 291 291 291 291 291 290 290 290 290 290 289 289 289 288 288 288 288 287 287 287 286 286 286 286
309 309 308 306 304 302 301 299 297 295 294 293 293 293 292 292 292 291 291 291 291 290 290 290 290 289 289 289 289 288 288 288 288 288 287 287 287 287 286 286 286 286
307 306 305 303 302 300 299 296 294 294 293 292 292 292 292 291 291 291 291 291 290 290 289 289 289 289 289 288 288 288 288 287 287 287 287 287 287 286 286 286 285 285
304 303 302 301 300 298 296 294 293 292 292 292 292 291 291 291 291 291 290 290 289 289 289 289 289 288 288 288 288 288 287 287 287 287 287 286 286 286 286 286 285 285
302 301 300 299 297 295 293 293 292 292 291 291 291 291 291 291 290 290 289 289 289 289 288 288 288 288 288 288 287 287 287 287 287 286 286 286 286 286 286 285 285 284
300 299 298 296 294 293 292 292 291 291 291 291 291 291 291 290 290 289 289 288 288 288 288 288 288 288 287 287 287 287 287 287 286 286 286 285 285 285 285 285 284 284
298 297 295 294 293 292 292 291 291 291 291 290 290 290 290 290 289 289 288 288 288 288 288 288 287 287 287 287 287 287 286 286 286 285 285 285 285 285 284 284 284 284
296 294 293 292 292 291 291 291 290 290 290 290 290 290 290 289 289 289 288 288 288 288 288 287 287 287 287 287 286 286 286 285 285 285 284 284 284 284 284 283 283 283
294 293 292 291 291 291 290 290 290 290 290 290 290 289 289 289 288 288 288 288 287 287 287 287 287 287 286 286 286 285 285 285 284 284 284 284 284 283 283 282 282 281
292 291 291 291 290 290 290 290 290 290 289 289 289 289 288 288 288 288 288 288 287 287 287 287 287 286 286 286 285 285 285 284 284 284 284 284 283 283 282 282 281 281
291 291 290 290 290 290 290 289 290 289 289 289 288 288 288 288 288 288 288 287 287 287 287 287 286 286 286 285 285 284 284 284 284 284 284 283 283 282 282 281 280 280
291 290 290 290 289 289 289 289 289 289 289 288 288 288 287 287 287 287 287 287 287 287 286 286 286 286 285 285 284 284 284 284 284 284 283 283 282 282 281 280 280 280
290 290 290 290 289 289 289 289 289 289 288 288 288 287 287 287 287 287 287 287 286 286 286 286 285 285 285 284 284 284 284 284 284 283 282 282 281 281 280 280 280 279
290 290 290 290 289 289 289 289 288 288 288 287 287 287 287 287 287 286 286 286 286 286 286 285 285 284 284 284 284 284 283 283 282 282 282 281 280 280 280 280 279 278
289 289 290 290 289 289 289 288 288 288 287 287 287 287 287 286 286 286 286 286 285 285 285 285 284 284 284 284 284 283 282 282 282 281 281 280 279 279 279 279 278 278
289 289 289 289 289 289 288 288 288 287 287 287 286 286 286 286 286 285 285 285 285 285 284 284 284 284 284 284 283 283 282 281 281 280 280 279 278 278 278 277 277 277

ECMWFNIL_925_thetae_102.txt.gz
Theta_e
331 331 331 331 331 330 330 329 328 327 326 325 324 323 321 319 318 317 316 316 314 311 309 308 307 307 306 304 302 299 297 296 295 294 293 293 292 292 292 292 291 291
330 331 331 330 331 330 329 329 327 326 325 324 322 322 320 318 317 317 315 312 309 307 306 305 304 304 302 300 298 296 294 294 293 293 292 292 292 291 291 291 291 290
330 330 330 330 330 329 328 328 326 326 324 322 322 321 319 317 317 314 310 307 305 304 303 302 301 299 298 296 295 294 293 293 293 292 292 292 291 291 291 290 290 290
330 330 330 330 329 329 328 326 325 324 322 321 321 319 317 316 314 309 306 304 303 302 300 299 297 296 295 294 293 293 293 292 292 292 291 292 291 291 290 290 289 289
329 329 329 328 329 328 326 325 324 322 322 322 320 317 316 314 309 305 304 303 301 299 298 296 295 294 293 293 293 293 292 292 292 292 291 291 291 290 290 289 289 288
328 327 327 327 327 326 326 324 323 322 322 321 318 316 313 309 305 304 303 301 299 297 295 294 294 293 293 292 292 292 292 292 291 291 291 290 290 290 289 289 289 288
326 326 326 326 325 324 324 323 322 322 322 319 316 313 308 305 304 302 300 298 296 295 294 293 293 293 292 292 292 292 292 291 291 290 290 290 289 289 289 289 288 288
325 325 324 324 323 322 322 322 322 321 319 316 312 308 304 303 302 300 298 296 294 293 293 293 292 292 292 292 291 292 291 291 290 290 290 289 289 289 289 288 288 288
323 323 322 322 322 321 321 320 319 317 315 312 307 304 302 302 300 297 296 294 293 292 292 292 292 292 291 291 291 291 291 290 290 290 289 289 289 289 288 288 288 287
321 321 321 320 320 320 319 318 315 313 310 306 304 302 301 299 297 295 294 293 292 292 292 292 292 291 291 291 291 290 290 290 289 289 289 289 288 288 288 288 288 287
319 319 319 318 318 317 316 315 312 309 305 303 302 301 299 297 295 293 292 292 292 292 291 291 291 291 291 291 290 290 289 289 289 289 288 288 288 287 287 287 287 287
317 317 317 317 316 315 314 312 308 304 302 301 300 298 296 294 293 292 291 291 291 291 291 291 291 290 290 290 290 289 289 289 288 288 288 288 287 287 287 287 287 286
315 316 315 315 314 313 311 307 303 301 301 300 298 295 294 293 291 291 291 291 291 291 290 290 290 290 290 289 289 288 288 288 288 288 287 287 287 287 287 286 286 286
314 315 314 312 311 309 306 302 300 300 299 297 295 293 292 291 291 291 290 290 290 290 290 290 290 289 289 288 288 288 288 288 288 288 287 287 287 287 286 286 286 285
313 312 311 310 308 305 301 300 300 298 296 294 293 292 291 291 291 290 290 290 290 290 289 289 289 289 288 288 288 288 288 288 287 287 287 287 287 286 286 286 286 285
310 309 308 306 304 301 299 299 298 296 294 292 291 291 291 290 290 290 290 290 290 289 289 288 288 288 288 288 288 287 287 287 287 287 287 287 287 286 286 286 285 285
307 306 305 303 301 299 298 297 295 293 292 291 290 290 290 290 289 289 289 289 289 289 288 288 288 287 287 287 287 287 287 287 287 287 287 286 286 286 286 285 285 285
304 303 302 300 299 298 297 296 294 292 291 290 290 290 289 289 289 289 289 289 288 288 288 287 287 287 287 287 287 287 287 287 287 286 286 286 286 285 285 285 284 284
302 301 300 298 298 297 296 294 292 291 290 290 289 289 289 289 289 288 288 288 288 288 287 287 287 287 286 286 286 286 286 286 286 286 286 286 285 285 285 284 284 284
300 299 298 297 296 295 294 292 291 290 290 289 289 289 289 288 288 288 288 287 287 287 287 287 286 286 286 286 286 286 286 286 286 286 285 285 285 285 284 284 284 283
298 297 296 296 295 293 292 291 290 290 289 289 289 289 289 288 288 288 287 287 287 286 286 286 286 286 286 286 286 286 286 286 286 285 285 285 284 284 284 284 283 282
296 295 295 294 293 292 291 290 289 289 289 289 289 288 288 288 287 287 287 287 286 286 286 286 286 286 285 285 285 286 285 285 285 285 284 284 284 284 284 283 283 282
295 295 294 293 292 291 290 289 289 289 289 289 288 288 287 287 287 287 286 286 286 286 286 286 286 285 285 285 285 285 285 285 285 284 284 284 284 284 284 283 282 281
295 294 293 292 291 290 290 289 289 289 288 288 288 288 287 287 287 286 286 286 286 286 285 286 286 285 285 285 285 285 285 285 285 284 284 284 284 284 283 283 282 280
293 292 291 291 290 290 289 289 289 288 288 288 288 288 287 287 286 286 286 285 285 285 285 285 285 285 285 284 284 285 285 285 284 284 284 284 284 283 283 282 281 279
292 291 291 290 290 289 289 289 289 288 288 287 287 287 287 286 286 286 285 285 285 285 285 285 285 284 284 284 284 284 284 284 284 284 284 284 283 282 281 281 279 278

ECMWFNIL_925_thetae_105.txt.gz
Theta_e
330 330 330 330 331 330 330 330 330 330 329 327 325 324 324 323 322 321 320 319 317 315 315 314 313 312 309 304 300 298 297 295 294 293 293 293 292 292 291 291 291 290
329 330 330 330 330 330 330 330 330 330 329 327 325 324 324 322 322 321 319 317 315 314 314 313 311 309 305 300 298 296 295 294 293 292 292 292 292 291 291 290 290 290
329 329 329 329 330 329 330 330 330 330 329 327 326 324 323 322 322 321 317 314 315 314 312 310 308 306 302 298 296 295 293 293 293 292 292 292 291 291 291 290 289 289
329 329 329 329 330 330 330 330 329 329 328 327 326 324 323 321 321 320 316 314 314 311 308 306 305 302 299 296 294 294 293 292 292 292 291 291 291 290 290 289 289 289
328 329 329 329 330 330 329 329 329 328 327 327 325 323 322 321 321 319 316 313 310 306 305 304 301 298 296 294 293 293 292 292 292 291 291 291 290 290 289 289 289 289
327 327 327 328 329 329 329 329 328 327 327 325 323 321 321 320 319 317 315 310 306 304 302 300 298 296 294 293 292 292 292 292 292 291 291 291 290 289 289 288 289 288
325 326 326 327 328 328 329 328 328 327 326 323 322 321 321 320 317 315 312 307 303 302 299 297 295 294 293 292 292 292 292 292 291 291 291 291 290 289 289 288 288 288
325 325 325 325 326 326 327 327 326 326 324 322 321 321 321 319 317 313 308 304 301 299 296 295 294 293 292 292 291 292 291 291 291 290 290 290 289 289 289 288 288 288
323 324 324 324 325 325 326 326 325 324 323 321 321 321 320 318 315 310 304 301 299 297 295 294 293 292 291 291 291 292 291 291 290 290 290 290 289 289 288 288 288 288
322 323 323 323 324 323 323 324 323 321 321 321 321 320 319 316 311 305 301 300 297 295 294 293 292 292 291 291 291 291 291 290 290 290 289 289 289 289 288 288 288 288
321 321 321 321 322 321 321 322 321 320 321 321 321 319 316 311 306 302 300 298 295 294 293 292 291 291 291 291 290 290 290 290 290 289 289 289 288 288 288 288 288 287
320 320 319 320 320 320 320 321 319 319 320 319 319 317 312 306 302 300 298 296 294 293 292 292 291 291 291 291 290 290 290 290 289 289 288 288 288 288 287 287 287 287
317 318 318 319 319 319 319 319 318 319 318 317 315 312 307 303 300 298 296 294 293 292 291 291 291 290 290 290 290 290 290 289 289 288 288 288 288 287 287 287 287 287
317 318 317 317 317 317 317 318 317 317 316 314 311 306 303 301 299 296 294 293 292 291 291 290 290 290 290 289 289 289 289 289 288 288 288 287 287 287 287 286 286 286
317 317 316 316 316 316 316 316 315 314 312 309 305 302 301 299 296 294 293 291 291 290 290 290 290 290 289 289 289 289 288 288 288 288 287 287 287 286 286 286 286 286
314 314 314 315 314 314 314 313 312 310 307 303 301 300 298 296 294 293 292 291 290 290 289 289 289 289 289 289 289 288 288 288 288 287 287 287 286 286 286 286 286 285
313 313 312 312 312 312 311 310 309 306 302 300 299 297 295 294 292 291 291 290 290 289 289 289 289 288 288 288 288 288 287 287 287 287 287 286 286 286 286 286 285 285
312 311 311 310 310 310 309 307 305 301 299 298 296 294 293 292 291 291 290 290 289 289 289 289 288 288 288 288 287 287 287 287 287 287 286 286 286 286 286 285 285 285
310 309 309 308 308 308 306 303 300 298 297 296 294 292 291 291 290 290 289 289 289 289 288 288 288 287 287 287 287 287 287 287 287 286 286 286 286 286 285 285 285 285
307 307 307 307 306 305 302 300 297 296 295 293 292 291 290 290 290 289 289 289 288 288 288 288 287 287 287 287 287 286 287 286 286 286 286 286 286 285 285 285 285 284
305 304 304 304 303 301 299 297 295 294 292 291 291 290 290 290 289 289 288 288 288 288 288 287 287 287 287 286 286 286 286 286 286 286 285 285 285 285 285 285 284 284
303 302 301 301 300 298 297 295 293 292 291 290 290 289 289 289 289 288 288 287 287 287 287 287 286 286 286 286 286 286 286 285 285 285 285 285 285 285 284 284 284 284
302 301 300 300 298 296 295 293 292 291 290 290 289 289 288 288 288 288 287 287 287 286 286 286 286 286 286 286 286 285 285 285 285 285 285 284 284 284 284 284 284 284
302 301 300 299 297 296 294 292 291 290 289 289 289 289 288 288 287 287 287 286 286 286 286 286 286 285 285 285 285 285 285 285 285 284 284 284 284 284 284 284 284 283
301 300 299 299 297 295 293 292 290 290 289 289 288 288 288 287 287 287 286 286 286 286 285 286 286 285 285 285 285 285 285 285 284 284 284 284 284 284 284 284 283 283
299 298 298 297 296 293 292 290 289 289 288 288 287 287 287 286 286 286 286 285 285 285 285 285 285 285 285 285 285 285 285 284 284 284 284 284 284 284 284 283 283 283

ECMWFNIL_925_thetae_108.txt.gz
Theta_e
329 330 330 330 329 329 329 329 329 330 330 330 330 328 326 325 324 323 323 321 320 320 319 318 316 314 315 313 308 304 304 301 297 295 294 294 293 293 292 292 292 292
329 329 330 329 329 329 329 328 329 329 330 330 330 329 327 325 323 323 322 321 320 319 318 316 315 314 314 310 304 302 299 297 295 294 293 293 292 292 292 292 291 291
328 328 329 328 328 329 328 328 328 329 330 329 329 328 327 325 324 323 322 320 320 319 318 316 314 314 313 307 301 299 296 294 294 293 293 292 292 291 291 291 291 290
327 327 327 327 328 328 328 328 328 329 329 328 328 328 327 325 324 323 321 319 320 319 317 315 313 313 312 304 298 297 295 294 293 293 292 292 291 291 291 290 290 289
326 326 327 327 327 327 327 327 328 328 327 328 328 328 327 325 323 323 320 319 320 318 315 314 313 312 310 303 297 296 294 293 293 292 292 291 290 290 290 290 289 289
325 325 325 326 327 327 327 327 327 328 328 328 328 327 326 324 323 322 320 319 320 317 314 313 312 311 308 301 296 294 293 293 292 291 291 291 290 290 289 289 288 288
324 324 325 325 326 326 326 326 327 328 328 328 328 327 325 323 322 321 320 320 319 316 313 312 310 309 306 299 295 294 292 292 291 290 290 291 290 289 289 288 288 288
323 324 324 324 325 325 325 326 326 327 328 328 328 326 324 323 323 321 320 320 319 315 312 309 308 307 303 297 294 293 292 291 291 290 290 290 290 289 288 288 288 288
322 322 323 324 324 325 325 325 325 327 328 328 327 325 322 322 322 321 320 320 318 313 309 307 307 305 299 294 293 292 291 291 290 290 290 290 289 289 288 288 288 288
320 321 322 323 324 324 325 324 325 325 326 327 326 323 321 321 320 320 319 319 315 310 306 305 304 300 295 293 292 291 291 291 290 289 289 289 289 288 288 288 288 288
318 320 322 322 323 323 323 323 324 324 324 325 324 322 321 320 318 318 319 317 313 307 304 303 300 296 294 292 291 291 291 290 290 289 289 288 288 288 288 288 287 287
316 318 320 321 322 322 322 322 322 322 322 323 323 321 321 319 317 317 317 315 310 304 302 300 297 294 293 291 291 290 290 290 289 289 288 288 288 288 288 288 287 287
315 317 318 320 320 320 321 320 320 320 320 321 321 320 319 318 317 316 315 312 307 302 300 297 295 293 292 291 290 290 289 289 289 288 288 288 288 288 287 287 287 287
316 317 318 319 319 319 319 319 319 318 318 318 318 318 319 319 317 316 313 308 303 300 298 295 293 292 291 290 290 289 289 289 288 288 288 288 288 287 287 287 287 287
316 317 317 317 317 316 316 316 316 316 315 315 316 317 317 317 317 316 311 304 301 298 296 293 292 291 290 290 290 289 289 288 288 288 288 288 288 287 287 287 286 286
314 314 314 314 314 313 313 313 314 314 314 314 315 315 313 314 315 312 307 302 299 296 294 292 291 291 290 290 290 289 289 288 288 288 287 288 287 287 287 286 286 286
312 311 311 310 310 310 311 312 312 312 312 313 314 313 311 311 311 307 302 300 298 295 293 291 290 290 290 289 289 289 289 288 288 288 287 287 287 287 287 286 286 286
310 309 308 309 310 310 310 310 310 311 311 312 313 311 309 308 306 303 299 298 296 293 291 290 290 289 289 289 288 288 288 288 288 287 287 287 287 287 286 286 285 285
308 307 306 308 310 311 310 310 310 310 311 311 310 308 306 305 302 299 297 295 293 291 290 290 289 289 288 288 288 287 287 287 287 287 287 287 287 286 286 286 285 285
307 306 306 308 308 309 309 309 309 309 308 307 306 305 303 301 298 296 294 293 291 290 290 289 288 288 288 287 287 287 287 287 287 287 287 286 286 286 286 285 285 285
306 305 306 307 307 307 308 308 307 306 305 304 304 303 301 298 295 294 292 291 290 289 289 288 288 288 287 287 287 287 287 286 286 286 286 286 286 285 285 285 285 285
306 305 305 305 306 306 305 305 304 303 303 303 300 298 296 295 293 292 291 290 289 289 288 288 287 287 287 287 287 287 286 286 286 286 286 285 285 285 285 285 285 284
306 306 305 305 304 304 303 302 302 301 301 299 297 294 292 292 291 290 289 289 288 288 288 288 287 287 287 287 287 286 286 286 286 285 285 285 285 285 285 285 285 284
304 305 304 304 303 302 302 301 300 299 297 295 294 292 291 290 289 289 288 288 288 288 288 288 287 287 286 286 286 286 286 286 285 285 285 285 285 285 285 284 285 285
303 303 303 303 302 301 300 299 297 296 294 292 291 290 289 289 288 288 287 287 287 287 287 288 288 287 286 286 286 286 286 285 285 285 285 285 285 285 284 284 285 285
301 302 302 301 301 299 298 296 294 293 292 290 289 288 288 288 287 287 287 287 287 287 287 287 287 287 286 286 286 286 285 285 285 285 285 285 285 285 285 285 285 284

ECMWFNIL_925_thetae_111.txt.gz
Theta_e
330 330 331 331 331 331 331 331 331 331 331 330 330 330 330 330 329 328 328 326 324 323 324 323 322 321 320 318 317 315 313 311 310 309 307 304 298 294 294 294 293 293
329 330 330 331 331 331 331 330 330 330 330 330 329 330 330 330 330 329 328 325 323 323 323 323 321 320 319 317 315 313 310 309 309 308 304 298 294 294 294 293 293 293
329 329 330 330 331 331 330 330 330 330 330 329 328 330 330 330 330 329 327 325 323 323 322 321 320 319 318 316 314 311 309 308 307 304 300 295 293 293 293 293 292 292
328 329 329 330 330 331 330 330 329 330 329 328 328 330 330 330 330 328 326 325 324 322 322 321 319 318 317 315 314 312 308 306 304 301 297 294 293 293 293 292 292 291
328 328 328 329 330 330 329 329 329 329 328 327 328 329 329 329 329 327 325 325 323 321 321 320 318 317 316 314 313 311 307 305 302 298 295 293 293 293 292 292 291 290
327 327 328 328 329 329 328 328 328 329 327 327 328 328 327 328 328 327 325 323 322 321 320 319 318 317 315 314 312 308 304 302 298 294 293 293 293 292 292 291 290 289
326 326 327 327 328 328 328 328 328 328 327 327 327 327 327 327 327 326 324 323 322 321 320 319 318 317 314 313 310 306 302 298 294 293 293 292 292 292 291 290 289 289
324 325 326 326 327 327 327 327 327 327 327 327 326 326 327 327 327 326 323 322 322 321 320 319 318 316 314 312 309 304 299 295 293 293 292 292 292 291 290 289 289 289
324 324 325 326 326 326 327 327 327 327 327 327 326 326 326 326 326 325 323 322 321 320 319 318 316 315 313 312 309 302 296 294 293 292 292 292 291 290 290 289 288 288
322 323 324 324 325 325 326 326 326 326 326 326 326 325 326 325 324 323 322 321 321 320 319 317 316 314 312 311 309 302 295 293 292 292 291 291 291 290 289 288 288 288
320 321 322 323 324 324 324 325 325 325 325 325 325 324 325 325 324 322 320 319 319 320 318 317 316 314 311 310 307 300 294 292 292 291 291 291 290 289 289 288 288 288
317 319 320 321 322 323 323 324 324 324 324 324 324 323 323 323 323 322 320 318 319 319 318 317 316 313 310 308 305 298 293 292 291 291 290 290 289 289 288 288 288 288
313 316 318 319 320 321 322 322 322 322 322 322 322 322 321 320 320 321 319 317 318 318 318 318 315 310 308 307 302 296 292 291 290 290 290 289 289 288 288 288 288 288
309 311 314 317 318 319 319 320 320 320 320 320 320 320 319 319 320 320 318 316 316 316 316 318 313 308 306 305 300 294 291 290 290 290 289 289 288 288 288 287 287 287
309 310 311 313 315 317 317 317 318 318 318 318 318 317 317 317 317 318 318 316 316 315 315 314 310 306 305 303 297 292 291 290 290 289 289 288 288 287 287 287 287 287
311 311 311 312 314 315 316 316 316 316 316 316 315 314 314 312 311 312 315 316 316 316 313 310 307 305 303 299 295 292 290 290 289 289 288 288 288 287 287 287 287 287
311 311 311 312 313 313 314 315 315 314 314 314 313 311 311 310 308 309 313 315 316 316 312 307 304 303 300 296 293 291 290 290 289 288 288 288 288 287 287 287 287 287
309 309 310 311 311 312 312 312 312 312 312 311 310 310 309 308 307 308 312 314 313 312 309 305 303 301 297 294 292 290 290 290 289 288 288 288 287 287 287 287 287 286
308 308 309 309 310 310 310 310 310 310 310 309 309 309 309 309 308 308 311 312 309 307 305 303 301 299 295 292 291 290 289 289 289 288 288 288 287 287 287 287 287 286
307 307 308 308 308 308 308 308 308 308 307 307 307 307 306 307 308 308 309 309 306 303 301 300 299 296 293 291 290 289 289 288 288 288 288 287 287 287 287 287 287 286
307 306 307 306 307 306 305 305 306 306 306 305 305 305 306 307 308 308 308 307 304 300 298 298 296 294 292 290 290 289 288 288 288 288 287 287 287 287 287 286 286 286
306 306 305 305 305 304 303 303 303 304 305 304 304 304 305 306 306 307 307 306 301 297 295 295 294 292 291 290 289 288 287 287 287 287 287 287 287 286 286 286 286 286
306 305 304 304 303 303 302 302 302 303 303 303 303 303 304 304 304 304 303 302 298 294 293 293 292 291 290 289 288 287 287 287 286 286 286 286 286 286 286 286 285 286
305 305 304 303 303 303 303 302 303 303 303 303 303 304 304 303 302 301 299 297 295 293 292 292 291 290 289 288 288 287 286 286 286 286 286 286 286 286 285 285 285 285
304 304 304 304 304 304 303 302 302 303 303 302 303 303 303 302 300 298 296 293 292 291 291 291 291 290 288 288 287 286 286 286 286 286 286 286 286 285 285 285 285 285
303 304 303 304 304 304 303 302 302 302 301 301 300 300 299 298 297 295 293 291 290 290 289 289 289 289 288 287 286 286 285 286 286 286 286 286 286 285 285 285 285 285

ECMWFNIL_925_thetae_114.txt.gz
Theta_e
331 330 330 330 330 330 330 331 331 331 331 331 331 331 331 331 330 330 329 328 327 326 324 323 324 325 325 325 324 322 322 321 320 319 317 317 316 314 313 312 307 303
331 330 330 330 330 330 330 330 331 331 331 331 331 331 331 330 329 329 328 328 327 325 324 323 323 324 324 323 322 321 321 320 319 317 316 315 313 312 311 308 304 301
331 331 330 330 330 330 330 331 331 331 331 331 331 331 330 330 329 329 328 327 327 326 325 324 324 323 323 322 321 320 319 319 318 316 315 313 310 308 307 303 299 297
330 330 330 330 329 330 330 330 331 331 332 331 331 331 330 329 328 328 328 327 327 326 325 324 324 323 322 321 320 320 318 317 317 315 313 310 307 305 302 299 296 294
329 329 329 329 329 329 330 330 331 331 331 331 330 330 329 329 328 327 327 326 326 326 325 324 323 322 322 321 320 319 317 315 314 313 310 308 305 303 298 296 294 293
328 328 329 329 329 329 329 330 330 331 331 330 330 330 329 329 328 327 327 326 325 325 325 323 322 321 321 321 320 318 316 314 312 310 308 305 303 300 296 293 293 293
327 327 328 328 328 329 329 330 330 330 330 330 329 329 329 328 328 327 326 325 324 324 324 323 321 321 320 320 319 317 315 313 311 308 306 303 300 296 293 292 292 292
326 327 327 328 328 328 329 329 330 330 330 329 329 329 328 328 327 327 325 324 323 323 323 322 321 321 320 320 319 316 314 311 308 306 303 299 296 294 292 292 292 292
325 326 326 327 327 327 328 329 329 329 329 329 329 328 328 327 327 326 325 323 322 322 322 321 321 320 319 319 318 316 314 310 306 305 302 297 294 293 292 291 291 291
323 323 324 325 326 327 327 328 328 329 328 328 328 327 327 327 326 326 325 323 322 321 321 321 320 318 318 317 317 316 314 309 305 304 301 296 293 292 292 291 291 290
319 320 321 322 324 325 325 326 326 327 327 327 327 327 327 326 326 325 324 323 321 321 321 321 319 318 318 317 316 316 314 309 304 302 298 294 292 292 292 292 291 290
316 318 320 321 323 323 324 325 325 326 327 327 327 327 326 326 325 324 323 322 321 321 320 319 318 317 317 317 316 315 312 306 302 299 295 293 292 291 291 291 291 290
314 316 318 320 321 322 323 324 324 325 325 325 325 325 326 325 324 323 322 322 321 321 320 318 316 316 316 315 315 314 310 303 298 296 293 292 291 291 291 291 290 290
311 313 315 317 318 320 321 321 322 323 323 323 323 323 324 324 324 323 321 319 318 319 319 317 316 316 315 315 314 312 308 301 296 294 292 291 290 290 290 290 289 289
307 308 311 313 315 317 318 319 320 321 321 321 321 321 322 322 322 321 319 317 315 315 316 316 316 316 316 315 314 310 306 299 294 293 292 290 290 289 289 289 289 289
306 306 307 308 310 313 315 317 318 318 319 319 319 319 319 319 319 318 317 316 314 313 313 314 314 314 315 315 313 310 305 298 294 292 291 290 290 289 288 288 288 288
307 307 307 308 308 309 311 313 315 316 316 317 316 316 316 316 315 314 313 313 313 312 312 312 313 314 315 314 311 308 304 298 293 292 291 290 290 289 289 288 288 288
307 308 309 309 309 309 310 311 312 313 314 314 314 314 314 313 312 312 311 311 310 310 309 310 312 314 315 314 310 306 302 297 293 292 291 290 289 289 289 288 288 288
308 309 309 309 310 310 310 310 311 311 312 313 313 313 312 311 311 310 309 309 309 308 308 308 310 312 312 311 308 304 299 295 293 292 291 290 289 289 289 289 288 288
308 309 309 309 309 309 309 309 310 310 310 311 311 311 310 310 309 309 308 308 308 307 307 307 310 311 309 307 304 301 296 293 292 291 290 290 289 289 289 289 289 288
308 309 308 308 308 308 308 308 308 308 308 308 309 309 308 308 307 307 307 306 306 306 306 308 309 309 307 304 301 297 294 292 291 290 290 289 289 288 289 289 289 288
307 308 307 306 306 306 306 307 306 306 306 306 306 306 306 305 305 305 305 304 304 304 306 307 307 305 303 301 298 294 292 290 290 289 289 288 288 288 288 288 288 288
307 307 306 305 305 305 305 305 306 305 305 305 305 304 304 304 304 304 304 303 303 303 304 306 306 304 301 298 295 292 291 290 289 289 288 288 287 288 288 288 288 288
306 306 306 306 306 306 306 305 305 305 304 304 304 304 304 304 303 302 302 302 303 304 305 306 306 304 301 297 293 291 290 290 289 288 287 287 287 287 287 287 287 287
305 306 306 306 306 306 306 306 305 304 304 304 303 303 303 302 301 301 301 301 302 303 302 303 303 301 298 295 291 289 289 289 288 288 287 287 287 286 286 286 286 287
305 306 306 306 306 306 305 305 304 303 303 302 301 301 301 300 300 300 300 301 301 301 300 299 299 298 296 293 290 289 288 288 288 287 287 287 286 286 286 286 286 286

ECMWFNIL_925_thetae_117.txt.gz
Theta_e
330 330 330 330 330 330 330 330 330 331 331 331 331 331 331 331 331 331 331 331 330 330 330 329 329 328 328 328 328 327 326 325 324 323 322 322 322 321 319 317 316 315
330 330 330 330 330 330 330 330 330 330 330 330 330 330 330 331 331 331 331 331 331 330 329 329 329 329 328 328 327 327 325 324 324 323 322 322 321 320 319 317 316 314
331 331 330 330 330 329 330 330 329 329 329 329 330 329 329 330 330 330 330 330 330 330 329 329 329 329 328 327 327 326 325 324 323 323 322 321 321 320 319 316 314 313
331 331 331 330 330 329 329 329 329 329 329 329 329 329 329 329 329 329 330 330 329 330 329 329 329 328 328 327 326 324 324 323 323 323 322 321 320 319 317 315 314 312
330 331 331 331 330 330 329 329 329 329 329 329 329 329 329 329 329 330 330 330 329 329 329 329 329 328 327 326 324 323 323 322 322 322 321 320 319 317 316 314 312 311
330 330 330 330 330 330 329 329 329 329 329 329 329 330 330 330 330 330 330 330 329 329 329 329 328 327 326 324 323 323 323 323 322 321 320 319 318 316 314 313 311 309
329 329 330 330 330 330 330 329 329 329 329 329 330 330 330 330 330 330 330 330 329 328 328 327 327 326 324 323 323 323 322 322 322 321 319 317 316 314 312 311 308 306
328 328 329 329 329 330 329 329 329 329 329 329 330 330 330 330 330 330 330 329 329 328 327 327 325 324 324 323 323 322 322 321 320 319 317 315 314 312 310 308 305 303
325 326 327 327 328 328 328 328 328 328 329 329 329 330 330 330 330 330 330 329 329 328 327 327 325 323 322 322 322 322 321 320 319 318 317 315 313 311 309 306 302 299
324 325 326 326 327 327 327 328 328 328 328 329 329 330 330 330 330 330 329 329 328 328 327 325 323 322 321 321 321 322 321 320 319 317 316 315 313 311 308 305 300 296
324 325 325 325 326 327 327 327 327 328 328 328 329 329 329 329 329 329 329 328 328 327 326 325 322 321 320 320 320 321 321 320 319 317 315 314 313 310 308 304 299 294
323 324 324 324 325 325 326 327 327 327 328 328 329 329 329 329 329 328 328 327 327 326 325 324 322 321 320 319 319 320 320 319 318 317 315 313 311 309 306 303 297 293
320 321 321 321 322 322 322 323 324 325 326 327 327 327 328 328 327 327 326 326 325 325 325 324 322 320 319 317 318 319 318 317 316 315 313 311 309 307 304 300 295 292
316 315 315 315 316 317 318 319 320 321 322 323 324 324 324 325 325 325 324 323 324 325 325 323 321 319 318 317 318 317 315 314 314 314 312 309 306 303 300 297 293 291
311 310 311 312 313 315 317 318 319 320 320 321 321 321 322 322 323 323 322 323 324 324 323 320 318 317 317 317 317 315 313 312 313 313 311 307 303 299 296 293 292 291
308 307 308 310 312 313 315 316 318 319 319 319 320 320 321 321 322 322 322 322 323 322 320 317 316 315 315 316 316 315 314 313 313 312 309 304 301 297 294 292 291 290
305 305 305 306 308 310 312 314 315 316 317 318 318 319 319 319 320 320 320 320 318 317 316 315 315 314 314 314 314 314 314 314 312 310 306 302 299 296 293 291 290 290
303 304 304 304 305 306 308 310 312 313 315 315 316 316 317 317 317 317 317 317 316 314 314 315 315 314 313 313 313 313 312 311 310 309 306 301 297 294 292 291 290 289
303 304 305 306 306 307 307 308 309 310 311 312 313 314 314 315 315 315 315 314 314 313 313 313 313 312 312 311 311 310 309 309 310 309 306 301 296 293 291 291 290 289
304 305 306 307 308 308 308 308 309 309 309 310 311 311 312 313 313 313 313 313 312 312 312 312 311 311 311 309 308 307 306 306 306 305 303 299 295 292 291 290 290 290
304 305 306 307 308 308 309 309 309 310 310 310 310 311 311 311 311 312 312 312 311 310 310 310 310 309 308 307 306 305 304 303 303 302 299 297 293 291 290 290 290 290
304 305 306 307 308 308 309 309 309 309 309 309 309 309 309 309 310 310 311 310 309 308 308 308 308 307 306 305 306 305 304 303 302 300 298 295 292 291 290 290 290 289
304 305 306 307 308 308 308 309 309 310 309 309 309 309 308 308 308 308 308 307 307 306 306 306 306 306 305 306 306 306 305 303 301 299 297 294 291 290 289 289 289 289
303 304 306 307 307 307 308 308 308 308 308 307 307 307 307 306 305 304 304 304 303 303 304 304 304 304 304 305 306 306 305 304 301 298 294 292 289 289 288 288 288 288
303 304 305 306 306 306 307 307 306 306 305 304 304 304 304 304 303 303 302 302 301 301 301 302 302 303 303 303 303 303 302 301 298 295 291 289 288 287 287 287 287 287
303 304 304 305 305 305 305 305 304 304 303 303 302 301 301 301 301 301 300 300 300 300 300 300 301 302 302 302 302 300 299 298 296 293 290 288 287 287 287 287 287 287

ECMWFNIL_925_thetae_120.txt.gz
Theta_e
330 330 330 329 329 328 328 328 329 329 329 330 329 329 329 329 329 329 329 329 329 329 329 329 329 329 329 328 328 327 327 327 327 327 327 327 326 326 325 324 323 323
330 330 330 329 329 328 328 328 328 329 329 329 329 329 329 329 329 329 329 329 330 329 329 329 329 329 329 329 328 328 327 327 327 327 327 327 327 326 325 324 323 322
329 329 329 329 329 328 328 328 328 328 329 329 329 329 329 330 329 329 330 329 330 330 330 330 329 329 329 329 329 328 327 328 327 327 327 327 326 326 325 323 322 321
329 329 329 329 329 329 328 328 328 328 328 328 328 329 329 330 329 330 330 330 330 330 330 330 329 329 329 329 328 328 328 328 328 327 327 327 326 325 324 323 321 321
329 329 329 329 329 329 328 328 328 328 328 328 328 329 329 329 329 329 330 330 330 330 330 330 329 329 329 329 328 327 327 327 327 327 327 326 325 324 323 322 321 321
328 328 329 329 329 329 329 329 328 328 328 328 328 328 329 329 329 329 329 329 329 329 329 329 329 329 328 328 328 327 327 327 327 327 326 326 325 323 322 322 321 320
328 328 328 328 329 329 329 329 329 328 328 328 328 328 329 329 329 329 329 329 328 328 329 329 328 328 328 328 328 327 327 327 327 327 326 325 324 323 321 321 320 319
327 327 328 328 329 329 329 329 329 329 329 328 329 329 328 328 328 329 329 328 328 328 328 328 328 328 328 328 327 327 326 325 325 325 325 324 323 322 321 320 319 317
327 327 328 328 328 328 329 329 329 329 330 329 329 329 328 329 328 328 328 328 328 328 328 328 328 328 327 327 327 326 325 325 325 325 325 323 322 321 320 319 318 316
325 326 327 327 328 328 328 329 329 329 329 329 329 329 328 328 328 328 328 328 328 328 328 328 328 328 328 327 326 324 323 323 324 325 325 323 321 321 320 319 318 316
320 321 323 323 324 326 326 327 328 328 328 328 328 328 328 328 328 328 328 328 328 328 328 328 328 328 327 326 325 324 323 323 324 325 323 321 320 321 320 318 317 316
317 318 319 320 322 323 324 325 326 326 327 327 327 327 327 327 327 328 328 328 328 328 328 328 327 326 325 325 324 325 325 324 323 322 320 317 318 320 319 317 316 316
317 318 320 321 322 323 324 325 325 325 326 326 327 327 327 327 327 327 328 328 328 329 328 328 328 327 326 326 325 324 325 323 320 318 315 314 316 318 316 315 315 315
317 320 321 322 323 323 324 324 324 325 325 325 326 326 327 327 327 328 328 327 327 328 328 328 327 326 325 324 323 323 323 321 318 315 313 313 314 313 312 313 314 314
316 318 319 320 321 321 322 322 322 322 323 323 323 324 325 325 325 326 326 326 325 325 325 325 324 324 324 323 322 322 322 319 316 314 312 313 313 310 309 310 311 311
315 315 315 315 315 315 316 316 317 318 319 320 320 320 321 321 322 322 322 322 323 323 323 323 323 323 323 322 322 321 320 318 315 313 313 313 311 309 309 311 311 309
313 312 312 311 310 310 310 310 312 314 315 316 317 318 319 319 320 320 320 321 321 321 322 322 321 321 321 321 320 319 318 315 313 313 312 311 309 308 310 312 311 307
311 309 308 307 306 306 307 308 310 312 313 315 316 317 318 318 318 318 318 319 319 319 320 320 319 319 319 318 317 316 315 313 312 312 311 309 308 309 310 310 309 306
308 307 306 305 304 304 305 307 308 310 311 313 314 315 316 316 316 316 316 316 317 317 317 317 317 316 316 315 314 314 313 311 310 310 309 308 308 308 308 307 305 303
305 304 304 303 302 302 303 305 306 308 309 311 312 313 313 313 314 314 314 314 314 314 314 314 314 314 313 313 312 311 310 309 309 308 307 307 305 304 303 302 301 302
302 302 302 302 303 304 305 305 305 306 307 308 309 310 311 312 312 312 312 312 312 312 312 313 313 313 312 311 310 309 309 308 307 306 305 304 303 304 304 303 303 304
301 302 302 303 304 305 306 307 307 307 307 308 308 309 310 310 310 310 310 311 311 312 311 312 312 311 310 309 308 307 307 306 305 304 303 302 302 304 304 304 303 302
301 302 302 303 305 306 306 307 308 308 308 308 308 309 309 310 309 309 309 310 310 310 310 310 310 309 308 307 305 305 304 304 303 302 300 300 299 300 300 299 298 297
301 302 303 304 305 306 307 307 307 308 307 307 308 307 307 307 307 307 307 307 307 307 307 307 306 305 305 304 304 303 303 302 302 300 299 298 298 298 298 298 297 296
301 301 302 304 305 306 307 307 307 307 307 306 306 306 305 305 305 304 304 305 305 305 305 304 304 303 303 302 302 302 301 301 301 300 298 297 297 297 296 296 295 293
301 301 302 303 305 306 305 305 305 305 305 305 304 304 304 304 304 303 303 304 304 304 304 303 303 302 302 302 302 301 300 300 299 299 298 297 296 296 295 293 292 291

ECMWFNIL_925_thetae_123.txt.gz
Theta_e
329 329 329 329 329 329 329 329 328 328 327 327 326 326 327 327 326 327 326 326 326 326 326 326 326 326 326 326 327 326 327 326 326 326 325 325 325 325 324 324 324 324
329 329 329 329 329 329 329 329 329 328 328 327 327 326 327 327 327 327 327 328 328 327 327 327 326 327 327 327 327 326 327 326 326 326 326 325 325 325 325 324 324 324
329 329 329 329 329 329 329 329 329 329 328 327 327 327 326 327 327 328 328 328 328 328 328 328 327 327 327 327 327 327 326 326 326 326 326 326 325 325 325 324 324 324
328 328 329 329 329 329 329 329 329 328 328 327 327 327 326 326 327 327 328 328 328 328 328 328 328 328 327 327 327 327 327 327 327 327 326 326 326 325 325 325 325 325
328 328 328 328 328 329 328 328 329 328 328 327 327 327 326 326 327 327 328 328 328 328 328 329 328 328 328 327 327 327 327 327 326 327 326 325 326 326 325 326 325 325
327 327 327 328 328 328 328 328 328 328 328 327 327 327 326 326 327 327 328 328 328 328 328 328 328 328 328 328 328 327 327 327 326 327 326 325 325 325 325 325 324 325
327 326 327 327 327 327 327 328 328 328 327 327 327 327 326 327 327 327 327 327 328 328 328 328 328 328 328 328 328 327 327 327 327 327 326 325 325 325 324 325 324 324
326 326 326 326 327 327 327 328 327 327 327 327 327 327 327 327 327 327 328 327 328 328 327 328 328 327 328 328 327 327 327 327 326 326 325 325 324 324 324 325 324 322
326 325 326 326 326 327 327 327 327 327 328 327 327 328 327 327 328 327 328 327 328 328 327 328 327 327 327 327 327 327 326 327 326 325 325 325 325 325 325 325 322 320
325 325 325 325 326 326 326 327 327 327 328 328 328 328 327 328 328 328 328 328 327 328 327 327 327 327 327 327 327 327 326 326 326 325 325 326 325 324 322 321 320 320
325 325 325 325 325 326 326 326 327 327 327 327 328 328 328 328 328 328 327 327 327 327 327 327 327 327 326 326 326 326 326 326 326 325 324 323 321 319 319 318 317 318
324 324 325 326 325 326 326 326 326 326 327 327 327 327 327 327 327 327 327 327 327 327 327 327 327 327 326 326 326 326 325 325 324 323 321 321 321 320 320 320 318 318
319 320 322 323 324 324 325 325 325 325 325 326 326 326 326 326 326 326 326 326 327 326 327 327 327 327 326 326 326 325 325 324 322 320 320 322 322 321 321 320 319 319
314 316 316 318 318 319 320 320 320 321 322 323 324 324 325 325 325 325 326 326 326 326 326 326 325 325 326 326 326 325 325 323 321 321 322 323 322 321 320 320 318 316
312 313 313 315 315 316 316 317 317 319 320 321 322 323 324 324 324 325 325 324 325 325 324 324 323 323 324 325 325 324 323 322 322 322 323 322 320 320 319 317 315 313
310 312 313 315 315 315 316 316 317 319 320 321 322 322 323 323 323 323 323 323 323 323 322 322 322 322 323 323 322 321 320 320 321 321 320 319 318 317 316 315 313 312
310 312 314 315 315 315 315 315 316 318 319 319 320 320 320 321 322 321 320 320 321 321 320 321 321 321 322 321 320 319 319 319 319 318 317 317 316 315 314 313 311 309
312 313 314 313 312 312 312 312 312 313 314 315 315 316 317 318 318 319 319 319 319 319 319 319 319 320 319 319 319 318 318 318 318 316 316 315 314 313 312 310 309 308
313 312 312 310 309 308 307 307 307 307 308 310 311 313 314 315 316 316 317 318 318 318 318 317 317 317 317 317 317 317 317 317 316 315 314 314 313 312 311 309 308 306
310 310 309 308 307 305 303 303 303 305 306 308 309 310 312 313 314 314 315 315 315 316 316 316 316 315 316 316 316 316 316 315 314 313 313 312 311 310 309 308 307 306
308 307 306 305 304 303 302 302 302 303 305 306 308 309 310 311 312 313 313 313 314 314 314 315 315 315 315 315 315 314 313 312 311 311 311 309 308 307 306 306 306 306
307 305 304 303 302 302 302 303 303 303 304 305 306 308 309 310 310 311 312 312 312 312 312 312 313 313 314 314 313 312 310 309 309 309 307 306 305 305 305 304 304 304
305 303 302 301 301 302 303 303 304 304 304 304 305 307 307 308 308 309 310 310 310 310 310 310 311 311 312 312 311 310 308 308 307 306 305 304 304 303 303 302 302 302
303 302 301 301 301 302 303 304 305 306 306 306 306 307 307 308 308 309 309 309 309 309 308 308 309 309 310 310 309 308 307 306 305 304 303 302 302 301 301 300 300 300
302 301 301 301 302 302 303 305 305 306 307 307 307 307 308 308 309 309 309 309 309 308 308 308 308 308 308 308 307 306 305 303 302 302 301 301 301 301 300 300 300 300
301 300 300 301 301 302 304 305 306 307 307 308 308 308 308 308 308 308 308 308 307 307 307 308 308 307 306 305 304 304 304 303 302 302 302 302 301 300 299 299 300 300

ECMWFNIL_925_thetae_129.txt.gz
Theta_e
325 325 325 325 326 325 325 325 325 325 325 325 325 326 325 326 326 326 326 326 326 326 325 325 325 324 323 322 322 321 321 321 321 321 321 321 321 321 321 321 321 322
326 325 325 325 325 326 325 325 325 325 326 326 326 326 325 326 326 326 326 326 326 325 325 325 324 324 323 323 322 321 321 321 321 321 321 320 321 320 321 321 322 322
326 325 325 325 325 326 326 326 326 326 326 326 326 326 326 326 326 326 325 325 325 325 325 325 325 324 324 323 322 322 321 321 321 320 321 320 320 320 321 321 322 322
326 326 326 326 326 326 326 326 326 326 326 326 326 326 326 326 326 325 325 325 325 325 325 325 324 324 323 323 323 322 322 322 321 321 321 321 321 321 321 322 322 322
326 326 326 326 326 326 326 326 326 326 326 326 326 326 326 326 326 325 325 325 325 326 325 325 324 324 323 323 323 323 323 322 322 322 321 321 322 322 322 323 322 323
326 326 326 326 326 326 326 325 326 326 326 326 326 326 326 326 326 326 326 326 326 326 326 325 325 324 323 323 324 324 324 324 323 323 323 322 322 323 323 323 323 322
326 326 326 327 326 326 326 326 326 326 326 326 326 326 326 326 326 326 326 327 327 326 326 326 325 325 324 324 324 324 324 324 324 324 324 324 323 323 323 323 323 323
326 326 326 326 326 326 326 326 326 326 326 326 326 326 326 326 326 327 327 327 327 327 327 326 326 325 325 325 324 325 325 325 325 324 324 324 324 324 324 324 324 323
325 325 326 326 326 326 326 326 326 326 327 326 326 326 326 326 326 326 327 327 327 327 326 326 326 325 325 325 325 325 325 325 325 325 325 325 324 325 325 324 324 324
324 324 325 325 325 326 326 326 326 326 326 326 326 326 326 326 326 326 326 327 326 326 326 326 326 325 325 325 325 325 325 325 325 325 325 325 325 325 325 325 324 323
323 323 324 324 324 325 325 325 326 326 326 326 326 326 325 325 326 326 326 326 326 326 326 325 325 325 325 325 325 325 325 325 325 325 325 325 325 325 325 325 324 323
323 323 323 324 324 324 324 324 324 325 325 325 325 325 325 325 325 325 325 325 325 325 325 325 325 325 325 325 325 324 325 325 325 325 325 325 325 324 324 324 324 324
321 322 322 323 323 323 324 323 324 324 324 324 325 324 324 324 324 325 325 325 325 325 325 325 325 325 325 325 325 324 324 324 324 324 324 324 324 324 324 324 324 324
319 321 321 322 322 322 322 322 322 323 323 323 323 324 324 324 324 324 324 325 325 325 325 325 325 325 325 324 324 324 323 323 323 324 324 324 324 324 324 324 323 323
315 317 318 319 319 319 320 320 320 320 321 322 322 323 323 323 324 324 324 324 324 325 325 325 325 324 324 324 323 323 324 323 323 323 323 323 323 323 323 322 322 322
312 314 316 316 316 317 317 318 318 319 319 320 320 321 321 322 322 323 323 323 324 324 324 324 324 324 323 323 322 322 323 323 322 322 323 322 322 322 321 321 321 320
310 311 312 313 314 315 316 316 316 317 318 318 319 319 320 321 321 322 322 322 322 323 323 322 322 322 322 322 321 321 322 323 323 322 322 321 321 321 320 320 319 318
309 309 309 310 311 313 314 314 314 314 315 316 317 318 318 319 319 319 320 320 320 321 321 321 322 322 322 321 321 321 321 321 321 321 321 320 320 320 320 318 317 316
308 308 308 309 310 310 311 311 310 311 312 313 314 315 315 315 316 316 317 318 319 320 320 321 321 321 320 320 320 320 320 320 320 321 320 319 319 319 318 317 316 315
307 307 308 308 309 309 308 308 308 309 310 311 312 313 313 314 315 315 316 317 318 318 319 319 319 319 319 319 319 320 320 320 320 320 319 318 318 317 316 315 315 314
307 307 307 307 307 307 306 307 308 309 310 311 312 312 313 315 315 316 317 318 318 318 318 318 318 319 319 319 320 319 319 319 318 318 317 317 315 314 314 314 313 313
308 307 307 307 306 305 306 307 308 309 310 311 312 312 313 314 314 315 316 317 317 317 317 317 318 318 318 318 318 317 317 317 316 316 315 314 313 312 312 312 312 311
307 308 307 306 306 305 306 307 307 308 309 310 310 310 311 311 312 312 313 314 315 316 316 316 316 316 317 317 316 316 315 314 314 313 312 312 311 311 311 311 310 309
306 307 306 306 306 306 306 306 307 307 308 308 308 307 307 307 308 309 310 311 312 313 314 315 315 315 315 315 315 314 313 313 313 312 311 310 310 310 310 309 308 306
304 305 306 306 306 306 306 306 306 306 305 305 304 304 304 304 305 306 307 308 310 311 311 312 312 312 313 313 313 312 311 311 311 310 309 308 308 308 308 307 306 305
304 304 305 305 306 306 305 305 305 304 304 303 302 301 302 303 304 305 306 307 308 309 310 310 310 310 311 311 310 310 310 310 310 310 309 307 306 307 307 305 304 304

ECMWFNIL_925_thetae_132.txt.gz
Theta_e
326 327 327 327 327 327 327 327 327 327 327 327 327 326 326 326 326 325 325 325 325 325 325 325 325 324 324 324 324 323 323 323 323 322 322 321 321 321 321 321 321 321
326 326 326 327 327 327 327 327 327 327 327 326 326 326 326 326 325 325 325 325 325 324 325 325 325 324 324 324 324 323 323 323 322 322 322 322 321 321 321 321 321 321
327 326 326 326 327 327 327 327 327 327 327 326 326 326 326 326 325 325 325 325 325 324 324 324 325 324 324 324 323 323 322 322 322 322 322 322 321 321 321 321 321 321
327 327 326 326 326 327 327 327 327 327 327 327 327 326 326 326 325 325 325 324 324 324 324 324 324 324 324 324 323 323 322 322 322 322 321 321 321 321 321 321 321 321
326 326 326 326 326 326 327 327 327 327 327 327 327 326 326 325 325 325 325 324 324 324 324 324 324 324 324 323 323 322 322 322 322 322 321 321 321 321 321 320 321 320
325 326 326 327 326 327 327 326 327 326 327 327 326 326 326 326 325 325 325 324 324 324 324 324 324 324 324 324 323 323 323 322 322 321 321 321 321 321 320 320 320 320
325 326 326 326 326 327 327 327 327 326 326 327 326 326 326 326 325 325 325 324 324 324 324 324 324 324 325 325 324 324 323 322 322 322 321 321 321 321 321 321 321 320
324 326 326 326 326 327 326 326 327 326 326 326 326 326 326 326 326 325 325 324 324 324 325 325 325 325 326 325 324 323 323 322 322 322 322 321 321 321 321 321 321 321
323 325 326 326 326 326 326 326 326 326 326 326 326 326 326 326 326 325 325 325 324 325 325 325 325 325 325 325 324 324 324 323 322 322 322 322 322 322 322 322 321 321
322 323 324 325 325 326 326 326 326 326 326 326 326 326 326 325 325 325 325 325 325 325 325 325 325 325 325 325 325 324 324 324 323 323 322 322 322 322 322 322 321 321
320 321 323 323 325 325 325 325 325 326 326 326 326 325 325 325 325 325 325 325 325 325 325 325 325 325 325 325 325 325 325 324 324 323 323 323 323 323 323 322 322 322
319 320 321 322 323 324 325 325 325 325 325 325 325 325 325 325 325 325 325 325 325 325 325 325 325 325 325 325 325 325 325 324 324 324 324 323 323 323 323 323 323 322
318 319 320 321 322 323 323 324 324 324 324 324 324 324 324 324 324 324 324 325 325 325 325 325 325 325 325 325 325 325 325 324 324 324 324 324 323 323 323 323 323 323
316 318 319 320 321 321 322 322 322 323 323 323 323 323 323 324 324 324 324 324 324 325 325 325 325 325 325 325 325 324 324 324 324 323 323 323 323 323 323 323 323 323
313 315 317 318 319 319 320 320 320 321 321 321 321 322 322 322 323 323 323 324 324 324 324 324 324 325 324 325 324 324 324 324 323 323 323 322 322 322 322 323 323 323
310 311 313 315 316 317 318 318 318 318 319 319 320 320 321 321 322 322 322 323 323 323 323 324 324 324 324 324 324 324 324 323 323 323 322 322 322 321 321 322 322 323
308 309 310 311 312 313 314 314 315 316 316 317 318 319 320 320 320 321 321 322 322 322 322 323 323 323 324 324 324 324 324 323 322 322 321 321 321 321 321 321 321 322
307 307 308 309 310 311 312 311 312 312 314 315 316 317 318 318 319 320 320 321 321 321 321 322 322 323 323 323 323 323 324 322 321 321 321 321 321 321 321 321 321 321
306 306 306 308 308 309 310 309 309 310 311 313 314 315 316 316 317 318 319 319 320 320 320 321 321 322 323 323 322 323 323 321 321 321 321 320 321 321 321 321 320 320
305 305 306 307 307 308 308 308 308 308 309 310 312 313 314 315 316 316 317 318 318 319 319 319 320 321 322 322 322 321 321 320 321 321 320 320 320 320 320 320 319 319
304 304 305 305 306 306 306 307 307 307 307 308 309 310 312 313 314 315 316 317 317 317 318 318 319 320 321 321 321 321 320 320 320 319 319 319 320 319 318 319 319 318
303 304 304 304 304 303 303 305 307 307 306 306 307 308 309 310 312 313 314 315 315 315 315 316 317 318 319 319 320 320 320 320 319 318 317 318 319 318 317 317 317 316
303 303 303 303 302 302 302 305 306 306 305 305 306 307 308 309 310 311 312 312 313 313 314 315 316 316 317 318 318 318 319 319 318 317 316 317 318 317 317 317 316 315
304 303 302 302 301 302 304 305 305 305 305 305 306 307 308 308 309 310 311 312 313 314 314 315 315 316 317 317 317 317 317 317 317 316 315 315 315 315 315 315 315 314
304 303 303 302 301 302 304 304 304 304 304 304 305 306 307 308 309 310 311 312 313 314 315 315 315 316 317 317 317 317 316 316 315 314 312 312 313 312 312 312 312 312
304 304 303 303 302 302 302 302 302 303 303 303 305 306 306 307 308 309 310 311 312 312 313 314 315 316 316 316 316 316 315 314 314 313 312 311 311 311 311 310 310 310